DL9MFL-6 Weather Reports


time (UTC)temp
C
wind
direction
speed
KPH
gust
KPH
rain 1hr
cm
rain 24hr
cm
rain mn
cm
humidity
%
barometer
mb
20260903122100 24 296 12.9 24.1 0.00 0.00 0.00 50 1020.2
20260903122000 24 271 12.9 24.1 0.00 0.00 0.00 50 1020.3
20260903121858 24 250 12.9 24.1 0.00 0.00 0.00 50 1020.3
20260903121801 24 252 12.9 24.1 0.00 0.00 0.00 50 1020.3
20260903121753 24 268 12.9 24.1 0.00 0.00 0.00 50 1020.3
20260903121652 24 266 14.5 24.1 0.00 0.00 0.00 50 1020.3
20260903121551 24 266 14.5 24.1 0.00 0.00 0.00 50 1020.3
20260903121453 24 271 12.9 24.1 0.00 0.00 0.00 50 1020.3
20260903121352 24 238 14.5 24.1 0.00 0.00 0.00 50 1020.2
20260903121302 24 269 14.5 24.1 0.00 0.00 0.00 50 1020.3
20260903121245 24 265 14.5 24.1 0.00 0.00 0.00 50 1020.3
20260903121146 24 256 14.5 24.1 0.00 0.00 0.00 49 1020.3
20260903121045 24 282 14.5 25.7 0.00 0.00 0.00 50 1020.4
20260903121025 24 255 14.5 25.7 0.00 0.00 0.00 50 1020.4
20260903121020 24 240 14.5 25.7 0.00 0.00 0.00 50 1020.4
20260903121014 24 240 14.5 25.7 0.00 0.00 0.00 50 1020.4
20260903120746 24 284 14.5 25.7 0.00 0.00 0.00 50 1020.4
20260903120645 24 279 14.5 25.7 0.00 0.00 0.00 49 1020.4
20260903120545 24 317 14.5 25.7 0.00 0.00 0.00 48 1020.3
20260903120526 24 267 14.5 25.7 0.00 0.00 0.00 48 1020.3
20260903120517 24 263 14.5 25.7 0.00 0.00 0.00 49 1020.3
20260903120513 24 249 14.5 25.7 0.00 0.00 0.00 49 1020.3
20260903120246 24 271 14.5 25.7 0.00 0.00 0.00 48 1020.3
20260903120144 24 256 14.5 25.7 0.00 0.00 0.00 48 1020.4
20260903120045 24 284 14.5 25.7 0.00 0.00 0.00 49 1020.4
20260903120029 24 256 16.1 29.0 0.00 0.00 0.00 49 1020.4
20260903120018 24 291 16.1 29.0 0.00 0.00 0.00 49 1020.4
20260903120014 24 275 16.1 29.0 0.00 0.00 0.00 49 1020.5
20260903115743 24 261 16.1 29.0 0.00 0.00 0.00 49 1020.4
20260903115643 24 297 16.1 29.0 0.00 0.00 0.00 50 1020.4
20260903115538 24 246 16.1 29.0 0.00 0.00 0.00 48 1020.5
20260903115437 24 288 14.5 29.0 0.00 0.00 0.00 48 1020.4
20260903115337 24 273 14.5 29.0 0.00 0.00 0.00 49 1020.4
20260903115305 24 263 14.5 29.0 0.00 0.00 0.00 48 1020.4
20260903115238 24 244 14.5 29.0 0.00 0.00 0.00 48 1020.4
20260903115138 24 242 14.5 29.0 0.00 0.00 0.00 48 1020.4
20260903115036 24 257 14.5 29.0 0.00 0.00 0.00 48 1020.5
20260903114936 24 298 12.9 24.1 0.00 0.00 0.00 48 1020.5
20260903114836 24 248 12.9 24.1 0.00 0.00 0.00 48 1020.5
20260903114801 24 220 12.9 24.1 0.00 0.00 0.00 48 1020.5
20260903114736 24 214 12.9 24.1 0.00 0.00 0.00 49 1020.5
20260903114636 24 256 12.9 24.1 0.00 0.00 0.00 49 1020.5
20260903114536 24 277 12.9 24.1 0.00 0.00 0.00 48 1020.5
20260903114525 24 269 12.9 24.1 0.00 0.00 0.00 48 1020.5
20260903114516 24 312 12.9 24.1 0.00 0.00 0.00 48 1020.5
20260903114512 24 285 12.9 24.1 0.00 0.00 0.00 48 1020.5
20260903114236 24 323 12.9 24.1 0.00 0.00 0.00 48 1020.5
20260903114136 24 257 12.9 24.1 0.00 0.00 0.00 48 1020.5
20260903114036 24 289 12.9 24.1 0.00 0.00 0.00 49 1020.6
20260903114029 24 269 14.5 24.1 0.00 0.00 0.00 49 1020.7
20260903114018 24 275 12.9 24.1 0.00 0.00 0.00 49 1020.6
20260903114013 24 263 12.9 24.1 0.00 0.00 0.00 49 1020.6
20260903113732 24 281 14.5 24.1 0.00 0.00 0.00 49 1020.7
20260903113632 24 236 12.9 24.1 0.00 0.00 0.00 50 1020.7
20260903113531 24 250 12.9 24.1 0.00 0.00 0.00 50 1020.6
20260903113432 24 260 12.9 24.1 0.00 0.00 0.00 50 1020.6
20260903113332 24 315 14.5 24.1 0.00 0.00 0.00 49 1020.5
20260903113302 24 267 14.5 24.1 0.00 0.00 0.00 50 1020.6
20260903113231 24 222 14.5 24.1 0.00 0.00 0.00 49 1020.6
20260903113131 24 306 14.5 25.7 0.00 0.00 0.00 49 1020.6
20260903113031 24 324 14.5 25.7 0.00 0.00 0.00 49 1020.7
20260903112931 24 274 14.5 25.7 0.00 0.00 0.00 48 1020.6
20260903112831 24 262 14.5 25.7 0.00 0.00 0.00 49 1020.7
20260903112801 24 263 14.5 25.7 0.00 0.00 0.00 49 1020.7
20260903112732 24 263 14.5 25.7 0.00 0.00 0.00 49 1020.7
20260903112632 24 240 14.5 25.7 0.00 0.00 0.00 51 1020.7
20260903112532 24 258 14.5 25.7 0.00 0.00 0.00 50 1020.6
20260903112432 24 278 14.5 25.7 0.00 0.00 0.00 49 1020.6
20260903112332 24 281 14.5 25.7 0.00 0.00 0.00 49 1020.7
20260903112305 24 315 12.9 25.7 0.00 0.00 0.00 49 1020.7
20260903112232 24 275 12.9 25.7 0.00 0.00 0.00 49 1020.7
20260903112132 24 281 12.9 22.5 0.00 0.00 0.00 52 1020.8
20260903112031 24 296 12.9 22.5 0.00 0.00 0.00 51 1020.8
20260903111932 24 329 12.9 24.1 0.00 0.00 0.00 52 1020.8
20260903111832 24 261 12.9 24.1 0.00 0.00 0.00 52 1020.8
20260903111802 24 239 12.9 24.1 0.00 0.00 0.00 52 1020.8
20260903111730 24 262 12.9 24.1 0.00 0.00 0.00 52 1020.8
20260903111629 24 275 14.5 24.1 0.00 0.00 0.00 51 1020.8
20260903111529 24 246 14.5 24.1 0.00 0.00 0.00 51 1020.9
20260903111429 24 263 14.5 24.1 0.00 0.00 0.00 51 1020.9
20260903111329 24 273 14.5 29.0 0.00 0.00 0.00 52 1020.8
20260903111302 24 238 12.9 29.0 0.00 0.00 0.00 52 1020.7
20260903111229 24 282 12.9 29.0 0.00 0.00 0.00 51 1020.7
20260903111129 24 238 12.9 29.0 0.00 0.00 0.00 52 1020.7
20260903111029 23 254 12.9 29.0 0.00 0.00 0.00 51 1020.7
20260903110929 23 245 12.9 29.0 0.00 0.00 0.00 52 1020.7
20260903110830 23 227 12.9 32.2 0.00 0.00 0.00 53 1020.8
20260903110802 23 251 12.9 32.2 0.00 0.00 0.00 53 1020.8
20260903110729 23 252 12.9 32.2 0.00 0.00 0.00 52 1020.8
20260903110629 23 234 12.9 32.2 0.00 0.00 0.00 52 1020.8
20260903110529 23 303 12.9 32.2 0.00 0.00 0.00 52 1020.7
20260903110429 23 232 14.5 32.2 0.00 0.00 0.00 52 1020.7
20260903110329 23 215 14.5 32.2 0.00 0.00 0.00 53 1020.7
20260903110302 23 225 14.5 32.2 0.00 0.00 0.00 53 1020.7
20260903110229 23 251 14.5 32.2 0.00 0.00 0.00 54 1020.7
20260903110129 23 252 16.1 32.2 0.00 0.00 0.00 53 1020.7
20260903110026 23 297 16.1 32.2 0.00 0.00 0.00 52 1020.7
20260903105926 23 213 17.7 32.2 0.00 0.00 0.00 52 1020.7
20260903105826 23 247 17.7 33.8 0.00 0.00 0.00 53 1020.7
20260903105801 23 245 17.7 33.8 0.00 0.00 0.00 53 1020.8
20260903105726 23 254 17.7 33.8 0.00 0.00 0.00 53 1020.8
20260903105626 23 298 17.7 33.8 0.00 0.00 0.00 52 1020.7
20260903105525 23 252 17.7 33.8 0.00 0.00 0.00 53 1020.8
20260903105426 23 288 17.7 33.8 0.00 0.00 0.00 52 1020.8
20260903105326 23 281 17.7 33.8 0.00 0.00 0.00 52 1020.8
20260903105301 23 262 17.7 33.8 0.00 0.00 0.00 52 1020.8
20260903105225 23 267 17.7 33.8 0.00 0.00 0.00 53 1020.8
20260903105125 23 263 16.1 33.8 0.00 0.00 0.00 52 1020.9
20260903105025 23 287 16.1 33.8 0.00 0.00 0.00 53 1020.9
20260903105019 23 244 16.1 30.6 0.00 0.00 0.00 54 1020.8
20260903105011 23 264 14.5 33.8 0.00 0.00 0.00 53 1020.8
20260903105007 23 228 14.5 25.7 0.00 0.00 0.00 53 1020.8
20260903105003 23 277 14.5 25.7 0.00 0.00 0.00 53 1020.8
20260903104748 23 262 16.1 30.6 0.00 0.00 0.00 54 1020.8
20260903104744 23 254 14.5 25.7 0.00 0.00 0.00 53 1020.8
20260903104740 23 248 14.5 25.7 0.00 0.00 0.00 53 1020.8
20260903104736 23 279 14.5 27.4 0.00 0.00 0.00 55 1020.8
20260903104727 23 272 14.5 27.4 0.00 0.00 0.00 54 1020.8
20260903104723 23 258 16.1 27.4 0.00 0.00 0.00 54 1020.8
20260903104249 23 299 16.1 30.6 0.00 0.00 0.00 54 1020.9
20260903104245 23 227 16.1 30.6 0.00 0.00 0.00 54 1020.9
20260903104025 23 278 16.1 30.6 0.00 0.00 0.00 54 1020.8
20260903104017 23 269 16.1 30.6 0.00 0.00 0.00 53 1020.9
20260903104013 23 230 16.1 30.6 0.00 0.00 0.00 54 1020.8
20260903103721 23 275 16.1 30.6 0.00 0.00 0.00 53 1020.9
20260903103621 23 261 16.1 30.6 0.00 0.00 0.00 53 1020.8
20260903103521 23 261 16.1 30.6 0.00 0.00 0.00 53 1020.9
20260903103422 23 270 16.1 30.6 0.00 0.00 0.00 53 1020.8
20260903103321 23 289 16.1 30.6 0.00 0.00 0.00 53 1020.8
20260903103301 23 275 16.1 25.7 0.00 0.00 0.00 53 1020.8
20260903103221 23 267 16.1 25.7 0.00 0.00 0.00 54 1020.8
20260903103121 23 294 16.1 25.7 0.00 0.00 0.00 53 1020.7
20260903103021 23 281 16.1 25.7 0.00 0.00 0.00 54 1020.8
20260903102921 23 279 16.1 25.7 0.00 0.00 0.00 53 1020.7
20260903102821 23 281 16.1 24.1 0.00 0.00 0.00 53 1020.8
20260903102802 23 257 16.1 24.1 0.00 0.00 0.00 53 1020.8
20260903102721 23 249 16.1 24.1 0.00 0.00 0.00 53 1020.8
20260903102622 23 257 16.1 24.1 0.00 0.00 0.00 53 1020.8
20260903102522 23 290 14.5 24.1 0.00 0.00 0.00 53 1020.7
20260903102421 23 267 14.5 24.1 0.00 0.00 0.00 54 1020.8
20260903102322 23 302 14.5 24.1 0.00 0.00 0.00 54 1020.8
20260903102305 23 247 14.5 24.1 0.00 0.00 0.00 54 1020.8
20260903102217 23 272 14.5 22.5 0.00 0.00 0.00 54 1020.8
20260903102117 23 265 12.9 22.5 0.00 0.00 0.00 55 1020.8
20260903102033 23 283 12.9 22.5 0.00 0.00 0.00 55 1020.8
20260903102025 23 221 12.9 22.5 0.00 0.00 0.00 54 1020.8
20260903102017 23 325 12.9 22.5 0.00 0.00 0.00 54 1020.8
20260903102013 23 288 12.9 22.5 0.00 0.00 0.00 55 1020.8
20260903101758 22 269 11.3 20.9 0.00 0.00 0.00 57 1020.9
20260903101745 23 303 11.3 22.5 0.00 0.00 0.00 56 1020.9
20260903101742 23 257 11.3 22.5 0.00 0.00 0.00 56 1020.9
20260903101524 23 257 11.3 22.5 0.00 0.00 0.00 56 1020.9
20260903101516 22 263 11.3 20.9 0.00 0.00 0.00 56 1020.9
20260903101512 22 225 11.3 20.9 0.00 0.00 0.00 57 1020.9
20260903101218 22 260 11.3 20.9 0.00 0.00 0.00 55 1020.9
20260903101117 22 227 12.9 20.9 0.00 0.00 0.00 55 1021.0
20260903101017 22 275 11.3 20.9 0.00 0.00 0.00 56 1021.0
20260903100918 22 258 11.3 20.9 0.00 0.00 0.00 55 1021.0
20260903100817 22 289 11.3 19.3 0.00 0.00 0.00 56 1020.9
20260903100801 22 255 11.3 19.3 0.00 0.00 0.00 55 1020.9
20260903100717 22 259 12.9 19.3 0.00 0.00 0.00 55 1020.9
20260903100617 22 287 12.9 20.9 0.00 0.00 0.00 55 1021.0
20260903100517 22 256 12.9 20.9 0.00 0.00 0.00 55 1021.0
20260903100421 22 295 12.9 20.9 0.00 0.00 0.00 55 1021.0
20260903100313 22 268 12.9 20.9 0.00 0.00 0.00 55 1020.9
20260903100302 22 254 12.9 20.9 0.00 0.00 0.00 55 1020.9
20260903100213 22 305 11.3 20.9 0.00 0.00 0.00 56 1020.9
20260903100114 22 244 11.3 20.9 0.00 0.00 0.00 56 1020.9
20260903100014 22 285 12.9 20.9 0.00 0.00 0.00 56 1020.9
20260903095914 22 300 12.9 22.5 0.00 0.00 0.00 55 1020.9
20260903095814 22 282 12.9 22.5 0.00 0.00 0.00 55 1021.0
20260903095802 22 257 12.9 22.5 0.00 0.00 0.00 55 1021.0
20260903095714 22 262 12.9 22.5 0.00 0.00 0.00 56 1021.1
20260903095614 22 283 12.9 22.5 0.00 0.00 0.00 56 1021.0
20260903095531 22 292 14.5 22.5 0.00 0.00 0.00 56 1021.1
20260903095526 22 250 14.5 22.5 0.00 0.00 0.00 56 1021.1
20260903095522 22 281 12.9 22.5 0.00 0.00 0.00 56 1021.1
20260903095514 22 223 14.5 22.5 0.00 0.00 0.00 56 1021.1
20260903095210 22 276 14.5 22.5 0.00 0.00 0.00 56 1021.1
20260903095104 22 275 14.5 22.5 0.00 0.00 0.00 56 1021.1
20260903095004 22 258 12.9 22.5 0.00 0.00 0.00 55 1021.1
20260903094904 22 261 12.9 22.5 0.00 0.00 0.00 56 1021.2
20260903094802 22 269 12.9 22.5 0.00 0.00 0.00 55 1021.1
20260903094701 22 265 12.9 25.7 0.00 0.00 0.00 55 1021.1
20260903094601 22 222 12.9 25.7 0.00 0.00 0.00 56 1021.1
20260903094528 22 271 11.3 25.7 0.00 0.00 0.00 57 1021.1
20260903094523 22 234 12.9 25.7 0.00 0.00 0.00 56 1021.0
20260903094516 22 255 12.9 25.7 0.00 0.00 0.00 56 1021.0
20260903094508 22 282 12.9 25.7 0.00 0.00 0.00 56 1021.1
20260903094246 22 266 11.3 25.7 0.00 0.00 0.00 57 1021.1
20260903094242 22 309 11.3 25.7 0.00 0.00 0.00 56 1021.0
20260903094026 22 259 11.3 25.7 0.00 0.00 0.00 56 1021.0
20260903094022 22 298 11.3 25.7 0.00 0.00 0.00 56 1021.0
20260903094015 22 271 11.3 25.7 0.00 0.00 0.00 57 1021.1
20260903093701 22 263 9.7 19.3 0.00 0.00 0.00 57 1021.1
20260903093601 22 257 9.7 19.3 0.00 0.00 0.00 57 1021.1
20260903093501 22 297 9.7 19.3 0.00 0.00 0.00 59 1021.1
20260903093403 21 306 9.7 19.3 0.00 0.00 0.00 60 1021.1
20260903093301 21 282 9.7 19.3 0.00 0.00 0.00 60 1021.1
20260903093201 21 284 9.7 19.3 0.00 0.00 0.00 59 1021.1
20260903093100 21 229 9.7 19.3 0.00 0.00 0.00 59 1021.0
20260903093000 21 262 9.7 19.3 0.00 0.00 0.00 58 1021.1
20260903092901 21 209 9.7 19.3 0.00 0.00 0.00 57 1021.1
20260903092801 21 211 9.7 19.3 0.00 0.00 0.00 59 1021.1
20260903092757 21 206 9.7 19.3 0.00 0.00 0.00 59 1021.1
20260903092657 21 250 9.7 19.3 0.00 0.00 0.00 61 1021.1
20260903092557 21 225 9.7 19.3 0.00 0.00 0.00 62 1021.1
20260903092457 21 259 9.7 19.3 0.00 0.00 0.00 62 1021.1
20260903092353 21 249 9.7 19.3 0.00 0.00 0.00 62 1021.1
20260903092300 21 237 9.7 19.3 0.00 0.00 0.00 61 1021.1
20260903092253 21 238 9.7 19.3 0.00 0.00 0.00 61 1021.1
20260903092153 21 271 9.7 19.3 0.00 0.00 0.00 62 1021.1
20260903092053 21 246 9.7 19.3 0.00 0.00 0.00 62 1021.1
20260903091951 21 244 9.7 19.3 0.00 0.00 0.00 62 1021.1
20260903091845 21 260 9.7 16.1 0.00 0.00 0.00 62 1021.2
20260903091801 21 253 9.7 16.1 0.00 0.00 0.00 63 1021.2
20260903091745 21 284 9.7 16.1 0.00 0.00 0.00 63 1021.2
20260903091646 21 259 9.7 16.1 0.00 0.00 0.00 62 1021.2
20260903091546 21 273 9.7 16.1 0.00 0.00 0.00 61 1021.2
20260903091444 21 257 9.7 16.1 0.00 0.00 0.00 62 1021.3
20260903091346 21 284 9.7 16.1 0.00 0.00 0.00 61 1021.2
20260903091302 21 284 9.7 16.1 0.00 0.00 0.00 61 1021.2
20260903091243 21 274 9.7 19.3 0.00 0.00 0.00 61 1021.2
20260903091143 21 317 9.7 19.3 0.00 0.00 0.00 62 1021.1
20260903091043 21 299 8.0 19.3 0.00 0.00 0.00 63 1021.2
20260903091026 21 273 8.0 19.3 0.00 0.00 0.00 62 1021.2
20260903091021 21 285 8.0 19.3 0.00 0.00 0.00 62 1021.2
20260903091012 21 234 9.7 19.3 0.00 0.00 0.00 63 1021.2
20260903090741 21 281 8.0 19.3 0.00 0.00 0.00 62 1021.2
20260903090642 21 224 8.0 19.3 0.00 0.00 0.00 63 1021.2
20260903090541 20 254 8.0 19.3 0.00 0.00 0.00 63 1021.2
20260903090441 20 273 8.0 19.3 0.00 0.00 0.00 63 1021.2
20260903090342 20 268 6.4 19.3 0.00 0.00 0.00 63 1021.3
20260903090301 20 257 6.4 19.3 0.00 0.00 0.00 63 1021.2
20260903090239 20 221 6.4 12.9 0.00 0.00 0.00 63 1021.2
20260903090139 20 292 6.4 12.9 0.00 0.00 0.00 63 1021.3
20260903090039 20 273 6.4 12.9 0.00 0.00 0.00 63 1021.3
20260903085939 20 211 6.4 12.9 0.00 0.00 0.00 64 1021.5
20260903085839 20 259 6.4 12.9 0.00 0.00 0.00 63 1021.3
20260903085800 20 310 8.0 14.5 0.00 0.00 0.00 63 1021.5
20260903085737 20 263 8.0 16.1 0.00 0.00 0.00 63 1021.5
20260903085637 20 240 8.0 16.1 0.00 0.00 0.00 63 1021.5
20260903085535 20 261 8.0 16.1 0.00 0.00 0.00 64 1021.6
20260903085436 20 253 8.0 16.1 0.00 0.00 0.00 64 1021.5
20260903085334 20 257 8.0 16.1 0.00 0.00 0.00 63 1021.6
20260903085300 20 274 8.0 16.1 0.00 0.00 0.00 63 1021.3
20260903085231 20 317 8.0 16.1 0.00 0.00 0.00 64 1021.3
20260903085131 20 309 8.0 16.1 0.00 0.00 0.00 64 1021.6
20260903085031 20 274 8.0 16.1 0.00 0.00 0.00 63 1021.6
20260903084929 20 293 9.7 20.9 0.00 0.00 0.00 64 1021.6
20260903084829 20 292 9.7 20.9 0.00 0.00 0.00 64 1021.6
20260903084802 20 284 8.0 20.9 0.00 0.00 0.00 64 1021.5
20260903084729 20 277 8.0 20.9 0.00 0.00 0.00 64 1021.6
20260903084629 20 298 8.0 20.9 0.00 0.00 0.00 64 1021.6
20260903084530 20 279 8.0 20.9 0.00 0.00 0.00 64 1021.6
20260903084429 20 227 9.7 20.9 0.00 0.00 0.00 64 1021.6
20260903084301 20 275 9.7 20.9 0.00 0.00 0.00 64 1021.5
20260903084229 20 265 9.7 20.9 0.00 0.00 0.00 64 1021.5
20260903084129 20 234 11.3 20.9 0.00 0.00 0.00 64 1021.5
20260903084030 20 269 11.3 20.9 0.00 0.00 0.00 64 1021.5
20260903084026 20 283 9.7 19.3 0.00 0.00 0.00 64 1021.5
20260903084020 20 275 9.7 19.3 0.00 0.00 0.00 64 1021.5
20260903084012 20 317 9.7 19.3 0.00 0.00 0.00 64 1021.3
20260903083730 20 252 9.7 19.3 0.00 0.00 0.00 64 1021.5
20260903083629 20 319 9.7 19.3 0.00 0.00 0.00 64 1021.5
20260903083529 20 270 9.7 19.3 0.00 0.00 0.00 64 1021.5
20260903083429 20 273 9.7 17.7 0.00 0.00 0.00 64 1021.6
20260903083329 20 250 9.7 17.7 0.00 0.00 0.00 64 1021.5
20260903083301 20 298 9.7 17.7 0.00 0.00 0.00 65 1021.3
20260903083229 20 300 9.7 17.7 0.00 0.00 0.00 65 1021.3
20260903083129 20 279 9.7 16.1 0.00 0.00 0.00 66 1021.5
20260903083029 20 282 9.7 16.1 0.00 0.00 0.00 66 1021.3
20260903082929 20 309 9.7 16.1 0.00 0.00 0.00 66 1021.3
20260903082829 20 273 9.7 16.1 0.00 0.00 0.00 66 1021.3
20260903082801 19 261 9.7 16.1 0.00 0.00 0.00 65 1021.2
20260903082729 19 297 9.7 16.1 0.00 0.00 0.00 65 1021.2
20260903082628 19 288 9.7 16.1 0.00 0.00 0.00 65 1021.2
20260903082529 19 255 9.7 16.1 0.00 0.00 0.00 66 1021.2
20260903082525 19 209 8.0 16.1 0.00 0.00 0.00 65 1021.2
20260903082519 19 240 8.0 16.1 0.00 0.00 0.00 66 1021.2
20260903082511 19 209 8.0 16.1 0.00 0.00 0.00 66 1021.2
20260903082228 19 209 8.0 16.1 0.00 0.00 0.00 65 1021.2
20260903082128 19 265 8.0 17.7 0.00 0.00 0.00 65 1021.3
20260903082029 19 250 9.7 17.7 0.00 0.00 0.00 65 1021.3
20260903081929 19 263 9.7 17.7 0.00 0.00 0.00 67 1021.3
20260903081833 19 268 9.7 17.7 0.00 0.00 0.00 67 1021.2
20260903081801 19 262 9.7 17.7 0.00 0.00 0.00 67 1021.2
20260903081725 19 272 9.7 17.7 0.00 0.00 0.00 66 1021.2
20260903081625 19 285 9.7 17.7 0.00 0.00 0.00 67 1021.2
20260903081525 19 234 9.7 17.7 0.00 0.00 0.00 67 1021.1
20260903081425 19 233 9.7 17.7 0.00 0.00 0.00 67 1021.1
20260903081328 19 227 9.7 17.7 0.00 0.00 0.00 66 1021.1
20260903081301 19 290 9.7 17.7 0.00 0.00 0.00 66 1021.1
20260903081219 19 214 9.7 16.1 0.00 0.00 0.00 67 1021.1
20260903081119 19 282 9.7 16.1 0.00 0.00 0.00 67 1021.1
20260903081019 19 263 9.7 16.1 0.00 0.00 0.00 67 1021.2
20260903080919 19 267 9.7 16.1 0.00 0.00 0.00 68 1021.2
20260903080822 19 222 9.7 16.1 0.00 0.00 0.00 69 1021.2
20260903080801 18 257 9.7 16.1 0.00 0.00 0.00 69 1021.2
20260903080756 18 225 9.7 16.1 0.00 0.00 0.00 69 1021.1
20260903080743 18 300 9.7 16.1 0.00 0.00 0.00 69 1021.2
20260903080739 18 280 9.7 16.1 0.00 0.00 0.00 69 1021.2
20260903080523 18 246 9.7 16.1 0.00 0.00 0.00 69 1021.1
20260903080519 18 278 9.7 16.1 0.00 0.00 0.00 69 1021.1
20260903080515 18 246 9.7 16.1 0.00 0.00 0.00 69 1021.1
20260903080207 18 219 9.7 16.1 0.00 0.00 0.00 69 1021.1
20260903080107 18 282 9.7 16.1 0.00 0.00 0.00 70 1021.2
20260903080007 18 181 9.7 16.1 0.00 0.00 0.00 70 1021.2
20260903075907 18 290 9.7 16.1 0.00 0.00 0.00 70 1021.1
20260903075810 18 279 9.7 16.1 0.00 0.00 0.00 70 1021.1
20260903075800 18 289 9.7 16.1 0.00 0.00 0.00 70 1021.1
20260903075705 18 259 9.7 16.1 0.00 0.00 0.00 71 1021.1
20260903075605 18 242 8.0 16.1 0.00 0.00 0.00 71 1021.0
20260903075505 18 270 8.0 16.1 0.00 0.00 0.00 71 1021.0
20260903075403 18 219 8.0 16.1 0.00 0.00 0.00 71 1021.0
20260903075310 18 288 8.0 16.1 0.00 0.00 0.00 71 1020.9
20260903075307 18 272 8.0 16.1 0.00 0.00 0.00 71 1020.9
20260903075258 18 231 8.0 16.1 0.00 0.00 0.00 72 1021.0
20260903075243 18 263 8.0 16.1 0.00 0.00 0.00 71 1020.9
20260903075240 18 255 8.0 16.1 0.00 0.00 0.00 72 1021.0
20260903075020 18 220 8.0 16.1 0.00 0.00 0.00 72 1021.0
20260903075016 18 219 8.0 16.1 0.00 0.00 0.00 72 1021.0
20260903075012 18 231 8.0 16.1 0.00 0.00 0.00 72 1021.0
20260903074701 18 237 8.0 16.1 0.00 0.00 0.00 73 1020.9
20260903074601 18 218 8.0 16.1 0.00 0.00 0.00 73 1021.0
20260903074501 18 269 8.0 16.1 0.00 0.00 0.00 73 1020.9
20260903074401 18 252 8.0 16.1 0.00 0.00 0.00 74 1020.9
20260903074301 18 275 8.0 16.1 0.00 0.00 0.00 73 1021.0
20260903074201 17 261 8.0 16.1 0.00 0.00 0.00 74 1020.9
20260903074101 17 273 6.4 16.1 0.00 0.00 0.00 74 1021.0
20260903074001 17 250 6.4 16.1 0.00 0.00 0.00 74 1021.0
20260903073901 17 246 4.8 12.9 0.00 0.00 0.00 74 1021.0
20260903073801 17 227 4.8 12.9 0.00 0.00 0.00 75 1021.0
20260903073701 17 211 4.8 12.9 0.00 0.00 0.00 75 1020.9
20260903073601 17 271 4.8 12.9 0.00 0.00 0.00 75 1020.9
20260903073501 17 286 4.8 12.9 0.00 0.00 0.00 76 1020.9
20260903073401 17 213 3.2 12.9 0.00 0.00 0.00 76 1020.9
20260903073301 17 267 4.8 12.9 0.00 0.00 0.00 76 1020.9
20260903073201 17 266 4.8 12.9 0.00 0.00 0.00 76 1021.0
20260903073101 17 238 4.8 12.9 0.00 0.00 0.00 76 1021.0
20260903073000 17 236 4.8 12.9 0.00 0.00 0.00 77 1021.0
20260903072900 17 236 4.8 12.9 0.00 0.00 0.00 77 1021.0
20260903072801 17 234 6.4 12.9 0.00 0.00 0.00 77 1021.1
20260903072700 17 232 6.4 12.9 0.00 0.00 0.00 76 1021.1
20260903072600 17 273 6.4 12.9 0.00 0.00 0.00 76 1021.1
20260903072500 17 273 6.4 12.9 0.00 0.00 0.00 77 1021.2
20260903072400 17 234 6.4 12.9 0.00 0.00 0.00 77 1021.1
20260903072300 17 286 6.4 12.9 0.00 0.00 0.00 77 1021.2
20260903072200 17 277 6.4 12.9 0.00 0.00 0.00 78 1021.2
20260903072101 16 250 6.4 12.9 0.00 0.00 0.00 79 1021.2
20260903072001 16 279 6.4 12.9 0.00 0.00 0.00 78 1021.2
20260903071901 16 263 6.4 12.9 0.00 0.00 0.00 79 1021.2
20260903071801 16 254 6.4 12.9 0.00 0.00 0.00 79 1021.2
20260903071701 16 271 6.4 12.9 0.00 0.00 0.00 80 1021.2
20260903071601 16 227 6.4 12.9 0.00 0.00 0.00 80 1021.2
20260903071501 16 279 6.4 12.9 0.00 0.00 0.00 80 1021.2
20260903071401 16 216 6.4 12.9 0.00 0.00 0.00 80 1021.2
20260903071300 16 270 6.4 12.9 0.00 0.00 0.00 81 1021.2
20260903071201 16 212 6.4 12.9 0.00 0.00 0.00 81 1021.2
20260903071101 16 211 6.4 12.9 0.00 0.00 0.00 82 1021.2
20260903071020 16 221 6.4 12.9 0.00 0.00 0.00 82 1021.2
20260903071016 16 255 4.8 12.9 0.00 0.00 0.00 82 1021.3
20260903071012 15 271 4.8 12.9 0.00 0.00 0.00 83 1021.2
20260903070755 15 318 3.2 9.7 0.00 0.00 0.00 86 1021.5
20260903070740 15 225 4.8 12.9 0.00 0.00 0.00 83 1021.3
20260903070736 15 238 4.8 12.9 0.00 0.00 0.00 83 1021.3
20260903070521 15 227 3.2 12.9 0.00 0.00 0.00 84 1021.3
20260903070517 15 313 3.2 9.7 0.00 0.00 0.00 85 1021.3
20260903070513 15 318 3.2 9.7 0.00 0.00 0.00 86 1021.5
20260903070205 15 323 3.2 6.4 0.00 0.00 0.00 86 1021.3
20260903070001 15 329 3.2 6.4 0.00 0.00 0.00 86 1021.3
20260903065900 15 329 3.2 6.4 0.00 0.00 0.00 87 1021.5
20260903065800 15 329 3.2 6.4 0.00 0.00 0.00 87 1021.5
20260903065700 14 0 3.2 6.4 0.00 0.00 0.00 87 1021.5
20260903065600 14 5 3.2 6.4 0.00 0.00 0.00 87 1021.6
20260903065500 14 5 3.2 6.4 0.00 0.00 0.00 87 1021.6
20260903065401 14 5 3.2 6.4 0.00 0.00 0.00 87 1021.6
20260903065301 14 5 3.2 6.4 0.00 0.00 0.00 88 1021.6
20260903065200 14 5 3.2 6.4 0.00 0.00 0.00 88 1021.6
20260903065101 14 5 1.6 6.4 0.00 0.00 0.00 88 1021.6
20260903065002 14 9 1.6 4.8 0.00 0.00 0.00 88 1021.6
20260903064901 14 11 1.6 4.8 0.00 0.00 0.00 88 1021.6
20260903064800 14 11 1.6 4.8 0.00 0.00 0.00 89 1021.6
20260903064701 14 11 1.6 4.8 0.00 0.00 0.00 89 1021.6
20260903064601 13 11 1.6 4.8 0.00 0.00 0.00 89 1021.6
20260903064521 13 11 1.6 4.8 0.00 0.00 0.00 89 1021.6
20260903064517 13 11 0.0 4.8 0.00 0.00 0.00 89 1021.6
20260903064513 13 11 0.0 4.8 0.00 0.00 0.00 89 1021.6
20260903064201 13 10 0.0 4.8 0.00 0.00 0.00 90 1021.6
20260903064101 13 10 0.0 3.2 0.00 0.00 0.00 90 1021.6
20260903064001 13 10 0.0 1.6 0.00 0.00 0.00 90 1021.6
20260903063901 13 10 0.0 1.6 0.00 0.00 0.00 89 1021.6
20260903063801 13 10 0.0 1.6 0.00 0.00 0.00 90 1021.6
20260903063700 13 10 0.0 1.6 0.00 0.00 0.00 90 1021.6
20260903063602 13 10 0.0 1.6 0.00 0.00 0.00 91 1021.5
20260903063501 13 10 0.0 3.2 0.00 0.00 0.00 91 1021.5
20260903063400 13 10 0.0 3.2 0.00 0.00 0.00 91 1021.5
20260903063300 13 10 0.0 3.2 0.00 0.00 0.00 91 1021.5
20260903063252 13 10 0.0 3.2 0.00 0.00 0.00 91 1021.3
20260903063247 13 10 0.0 3.2 0.00 0.00 0.00 91 1021.3
20260903063239 13 10 0.0 3.2 0.00 0.00 0.00 91 1021.5
20260903063021 13 10 0.0 3.2 0.00 0.00 0.00 91 1021.3
20260903063017 13 10 0.0 3.2 0.00 0.00 0.00 91 1021.3
20260903063011 13 10 0.0 3.2 0.00 0.00 0.00 91 1021.3
20260903062700 13 10 0.0 3.2 0.00 0.00 0.00 91 1021.3
20260903062600 13 10 0.0 3.2 0.00 0.00 0.00 91 1021.5
20260903062521 13 11 0.0 1.6 0.00 0.00 0.00 91 1021.3
20260903062516 13 11 0.0 1.6 0.00 0.00 0.00 91 1021.3
20260903062513 13 11 0.0 1.6 0.00 0.00 0.00 91 1021.3
20260903062201 13 11 0.0 1.6 0.00 0.00 0.00 91 1021.2
20260903062100 13 11 0.0 1.6 0.00 0.00 0.00 91 1021.3
20260903062000 13 11 0.0 1.6 0.00 0.00 0.00 91 1021.2
20260903061902 13 11 0.0 1.6 0.00 0.00 0.00 91 1021.3
20260903061801 13 11 0.0 1.6 0.00 0.00 0.00 91 1021.2
20260903061701 13 11 0.0 1.6 0.00 0.00 0.00 91 1021.2
20260903061601 13 11 0.0 1.6 0.00 0.00 0.00 91 1021.2
20260903061501 13 11 0.0 1.6 0.00 0.00 0.00 91 1021.1
20260903061401 13 11 0.0 1.6 0.00 0.00 0.00 91 1021.1
20260903061301 13 11 0.0 1.6 0.00 0.00 0.00 91 1021.1
20260903061201 13 11 0.0 1.6 0.00 0.00 0.00 91 1021.1
20260903061104 13 11 0.0 1.6 0.00 0.00 0.00 91 1021.1
20260903061001 13 11 0.0 1.6 0.00 0.00 0.00 91 1021.1
20260903060901 13 11 0.0 1.6 0.00 0.00 0.00 91 1021.1
20260903060802 13 11 0.0 1.6 0.00 0.00 0.00 91 1021.1
20260903060701 13 11 0.0 1.6 0.00 0.00 0.00 91 1021.0
20260903060601 13 11 0.0 1.6 0.00 0.00 0.00 91 1021.1
20260903060501 13 11 0.0 1.6 0.00 0.00 0.00 91 1021.0
20260903060401 12 10 0.0 1.6 0.00 0.00 0.00 91 1021.0
20260903060301 12 10 0.0 1.6 0.00 0.00 0.00 91 1021.0
20260903060201 12 11 0.0 1.6 0.00 0.00 0.00 91 1021.0
20260903060100 12 11 0.0 1.6 0.00 0.00 0.00 91 1021.0
20260903060019 12 11 0.0 1.6 0.00 0.00 0.00 91 1021.1
20260903060015 12 11 0.0 1.6 0.00 0.00 0.00 91 1021.0
20260903060011 12 11 0.0 1.6 0.00 0.00 0.00 91 1021.0
20260903055755 12 11 1.6 3.2 0.00 0.00 0.00 91 1021.0
20260903055747 12 11 0.0 1.6 0.00 0.00 0.00 91 1021.0
20260903055743 12 11 0.0 1.6 0.00 0.00 0.00 91 1021.0
20260903055520 12 11 0.0 3.2 0.00 0.00 0.00 91 1021.0
20260903055516 12 11 0.0 3.2 0.00 0.00 0.00 91 1021.0
20260903055512 12 11 1.6 3.2 0.00 0.00 0.00 91 1021.0
20260903055201 12 11 1.6 4.8 0.00 0.00 0.00 91 1021.0
20260903055101 12 11 1.6 4.8 0.00 0.00 0.00 90 1021.0
20260903055021 12 11 1.6 4.8 0.00 0.00 0.00 91 1021.0
20260903055017 12 11 1.6 4.8 0.00 0.00 0.00 90 1021.0
20260903055013 12 11 1.6 4.8 0.00 0.00 0.00 91 1021.0
20260903054700 12 11 1.6 4.8 0.00 0.00 0.00 91 1021.0
20260903054601 12 11 0.0 4.8 0.00 0.00 0.00 91 1021.0
20260903054500 12 11 0.0 4.8 0.00 0.00 0.00 91 1021.0
20260903054400 12 11 0.0 4.8 0.00 0.00 0.00 91 1021.0
20260903054301 12 11 0.0 4.8 0.00 0.00 0.00 91 1021.0
20260903054201 12 9 0.0 0.0 0.00 0.00 0.00 91 1020.9
20260903054101 12 9 0.0 0.0 0.00 0.00 0.00 91 1020.9
20260903054000 12 9 0.0 0.0 0.00 0.00 0.00 91 1021.0
20260903053900 12 9 0.0 0.0 0.00 0.00 0.00 91 1020.9
20260903053801 12 9 0.0 0.0 0.00 0.00 0.00 91 1020.9
20260903053701 12 9 0.0 0.0 0.00 0.00 0.00 91 1020.9
20260903053601 12 9 0.0 0.0 0.00 0.00 0.00 91 1020.9
20260903053520 12 9 0.0 0.0 0.00 0.00 0.00 91 1020.9
20260903053516 12 9 0.0 0.0 0.00 0.00 0.00 91 1020.9
20260903053512 12 9 0.0 0.0 0.00 0.00 0.00 91 1020.9
20260903053200 12 9 0.0 1.6 0.00 0.00 0.00 91 1020.9
20260903053100 12 9 0.0 1.6 0.00 0.00 0.00 91 1020.9
20260903053000 12 9 0.0 1.6 0.00 0.00 0.00 91 1020.9
20260903052900 12 9 0.0 1.6 0.00 0.00 0.00 91 1020.8
20260903052801 12 9 0.0 1.6 0.00 0.00 0.00 91 1020.8
20260903052701 12 9 0.0 1.6 0.00 0.00 0.00 91 1020.8
20260903052601 12 9 0.0 1.6 0.00 0.00 0.00 91 1020.8
20260903052501 12 9 0.0 1.6 0.00 0.00 0.00 91 1020.9
20260903052400 12 9 0.0 1.6 0.00 0.00 0.00 91 1020.8
20260903052301 12 9 0.0 1.6 0.00 0.00 0.00 91 1020.9
20260903052201 12 9 0.0 1.6 0.00 0.00 0.00 91 1020.8
20260903052101 12 9 0.0 1.6 0.00 0.00 0.00 91 1020.9
20260903052005 12 9 0.0 1.6 0.00 0.00 0.00 91 1020.9
20260903051900 12 9 0.0 1.6 0.00 0.00 0.00 91 1020.9
20260903051801 12 9 0.0 1.6 0.00 0.00 0.00 91 1020.8
20260903051701 12 9 0.0 1.6 0.00 0.00 0.00 91 1020.9
20260903051601 12 9 0.0 1.6 0.00 0.00 0.00 91 1020.8
20260903051501 12 9 0.0 1.6 0.00 0.00 0.00 91 1020.9
20260903051401 12 9 0.0 1.6 0.00 0.00 0.00 91 1020.9
20260903051301 12 9 0.0 1.6 0.00 0.00 0.00 91 1020.9
20260903051201 12 9 0.0 0.0 0.00 0.00 0.00 91 1020.8
20260903051101 12 9 0.0 0.0 0.00 0.00 0.00 91 1020.8
20260903051025 12 9 0.0 0.0 0.00 0.00 0.00 91 1020.8
20260903051017 12 9 0.0 0.0 0.00 0.00 0.00 91 1020.8
20260903051013 12 9 0.0 0.0 0.00 0.00 0.00 91 1020.8
20260903050701 12 9 0.0 0.0 0.00 0.00 0.00 91 1020.8
20260903050601 12 9 0.0 0.0 0.00 0.00 0.00 91 1020.8
20260903050501 12 9 0.0 0.0 0.00 0.00 0.00 91 1020.8
20260903050401 12 9 0.0 0.0 0.00 0.00 0.00 91 1020.8
20260903050301 12 9 0.0 0.0 0.00 0.00 0.00 91 1020.8
20260903050201 12 9 0.0 0.0 0.00 0.00 0.00 91 1020.8
20260903050100 12 9 0.0 0.0 0.00 0.00 0.00 91 1020.8
20260903050023 12 9 0.0 0.0 0.00 0.00 0.00 91 1020.8
20260903050015 12 9 0.0 0.0 0.00 0.00 0.00 91 1020.8
20260903050011 12 9 0.0 0.0 0.00 0.00 0.00 91 1020.8
20260903045700 12 9 0.0 0.0 0.00 0.00 0.00 91 1020.9
20260903045600 12 9 0.0 0.0 0.00 0.00 0.00 91 1020.9
20260903045500 12 9 0.0 0.0 0.00 0.00 0.00 91 1020.8
20260903045400 12 9 0.0 0.0 0.00 0.00 0.00 91 1020.9
20260903045301 12 9 0.0 0.0 0.00 0.00 0.00 91 1020.9
20260903045201 12 9 0.0 0.0 0.00 0.00 0.00 90 1020.9
20260903045101 12 9 0.0 1.6 0.00 0.00 0.00 90 1020.9
20260903045001 12 9 0.0 1.6 0.00 0.00 0.00 90 1020.9
20260903044901 12 9 0.0 3.2 0.00 0.00 0.00 90 1020.9
20260903044801 12 9 0.0 3.2 0.00 0.00 0.00 90 1020.9
20260903044702 12 9 0.0 3.2 0.00 0.00 0.00 90 1020.9
20260903044600 12 9 0.0 3.2 0.00 0.00 0.00 90 1020.8
20260903044500 12 9 0.0 3.2 0.00 0.00 0.00 90 1020.8
20260903044401 12 9 0.0 3.2 0.00 0.00 0.00 90 1020.9
20260903044302 12 9 0.0 3.2 0.00 0.00 0.00 90 1020.8
20260903044200 12 9 0.0 3.2 0.00 0.00 0.00 90 1020.7
20260903044101 12 9 0.0 3.2 0.00 0.00 0.00 90 1020.7
20260903044001 12 9 0.0 3.2 0.00 0.00 0.00 90 1020.8
20260903043901 12 9 0.0 3.2 0.00 0.00 0.00 90 1020.7
20260903043801 12 9 0.0 3.2 0.00 0.00 0.00 90 1020.8
20260903043701 12 9 0.0 3.2 0.00 0.00 0.00 90 1020.8
20260903043601 12 9 0.0 3.2 0.00 0.00 0.00 90 1020.8
20260903043500 12 9 0.0 3.2 0.00 0.00 0.00 90 1020.8
20260903043401 12 9 0.0 3.2 0.00 0.00 0.00 90 1020.7
20260903043301 12 9 0.0 3.2 0.00 0.00 0.00 90 1020.7
20260903043200 12 9 0.0 3.2 0.00 0.00 0.00 90 1020.7
20260903043100 12 9 0.0 3.2 0.00 0.00 0.00 90 1020.8
20260903043000 12 9 0.0 3.2 0.00 0.00 0.00 90 1020.7
20260903042905 12 9 0.0 3.2 0.00 0.00 0.00 90 1020.7
20260903042801 12 9 0.0 3.2 0.00 0.00 0.00 90 1020.7
20260903042701 12 9 1.6 3.2 0.00 0.00 0.00 90 1020.7
20260903042600 12 9 1.6 3.2 0.00 0.00 0.00 90 1020.7
20260903042500 12 9 1.6 3.2 0.00 0.00 0.00 90 1020.7
20260903042403 12 9 1.6 3.2 0.00 0.00 0.00 90 1020.7
20260903042301 12 9 1.6 3.2 0.00 0.00 0.00 90 1020.7
20260903042202 12 9 1.6 3.2 0.00 0.00 0.00 90 1020.7
20260903042102 12 9 1.6 3.2 0.00 0.00 0.00 90 1020.7
20260903042000 12 9 1.6 3.2 0.00 0.00 0.00 90 1020.8
20260903041900 12 9 1.6 3.2 0.00 0.00 0.00 90 1020.7
20260903041801 12 9 1.6 3.2 0.00 0.00 0.00 90 1020.7
20260903041701 12 9 1.6 3.2 0.00 0.00 0.00 90 1020.7
20260903041559 12 9 1.6 3.2 0.00 0.00 0.00 90 1020.7
20260903041459 12 5 1.6 3.2 0.00 0.00 0.00 90 1020.7
20260903041359 12 5 0.0 3.2 0.00 0.00 0.00 90 1020.7
20260903041303 12 5 0.0 3.2 0.00 0.00 0.00 90 1020.7
20260903041259 12 5 0.0 3.2 0.00 0.00 0.00 90 1020.7
20260903041158 12 5 0.0 3.2 0.00 0.00 0.00 90 1020.7
20260903041058 12 5 0.0 3.2 0.00 0.00 0.00 90 1020.7
20260903040956 12 5 0.0 3.2 0.00 0.00 0.00 90 1020.7
20260903040857 12 5 1.6 3.2 0.00 0.00 0.00 90 1020.7
20260903040801 12 5 1.6 3.2 0.00 0.00 0.00 90 1020.7
20260903040755 12 5 1.6 3.2 0.00 0.00 0.00 90 1020.7
20260903040653 12 5 1.6 3.2 0.00 0.00 0.00 90 1020.7
20260903040551 12 5 1.6 3.2 0.00 0.00 0.00 90 1020.6
20260903040450 12 5 1.6 3.2 0.00 0.00 0.00 90 1020.7
20260903040354 12 5 1.6 3.2 0.00 0.00 0.00 90 1020.6
20260903040301 12 5 1.6 3.2 0.00 0.00 0.00 90 1020.6
20260903040248 12 5 1.6 3.2 0.00 0.00 0.00 90 1020.6
20260903040149 12 5 0.0 3.2 0.00 0.00 0.00 90 1020.6
20260903040048 12 5 0.0 3.2 0.00 0.00 0.00 90 1020.6
20260903035949 12 5 0.0 3.2 0.00 0.00 0.00 90 1020.6
20260903035851 12 5 0.0 3.2 0.00 0.00 0.00 90 1020.6
20260903035800 12 5 0.0 3.2 0.00 0.00 0.00 90 1020.6
20260903035748 12 5 0.0 3.2 0.00 0.00 0.00 90 1020.6
20260903035648 12 5 0.0 3.2 0.00 0.00 0.00 90 1020.6
20260903035547 12 5 1.6 3.2 0.00 0.00 0.00 90 1020.6
20260903035523 12 5 1.6 3.2 0.00 0.00 0.00 90 1020.5
20260903035520 12 5 1.6 3.2 0.00 0.00 0.00 90 1020.6
20260903035515 12 5 1.6 3.2 0.00 0.00 0.00 90 1020.6
20260903035246 12 5 1.6 3.2 0.00 0.00 0.00 90 1020.5
20260903035146 12 5 1.6 3.2 0.00 0.00 0.00 90 1020.5
20260903035046 12 5 1.6 3.2 0.00 0.00 0.00 90 1020.5
20260903034946 12 5 1.6 3.2 0.00 0.00 0.00 90 1020.5
20260903034847 12 5 1.6 3.2 0.00 0.00 0.00 90 1020.5
20260903034801 12 5 1.6 3.2 0.00 0.00 0.00 90 1020.5
20260903034743 12 5 1.6 3.2 0.00 0.00 0.00 90 1020.5
20260903034643 12 5 1.6 3.2 0.00 0.00 0.00 90 1020.5
20260903034543 12 0 1.6 3.2 0.00 0.00 0.00 90 1020.5
20260903034442 12 0 0.0 3.2 0.00 0.00 0.00 90 1020.5
20260903034344 12 0 1.6 3.2 0.00 0.00 0.00 90 1020.5
20260903034301 12 0 1.6 3.2 0.00 0.00 0.00 90 1020.6
20260903034242 12 0 1.6 3.2 0.00 0.00 0.00 90 1020.6
20260903034142 12 0 1.6 3.2 0.00 0.00 0.00 90 1020.5
20260903034042 12 0 1.6 3.2 0.00 0.00 0.00 90 1020.5
20260903033942 12 0 1.6 3.2 0.00 0.00 0.00 90 1020.5
20260903033843 12 0 1.6 3.2 0.00 0.00 0.00 90 1020.5
20260903033800 12 355 1.6 3.2 0.00 0.00 0.00 90 1020.5
20260903033743 12 355 1.6 3.2 0.00 0.00 0.00 89 1020.5
20260903033643 12 355 1.6 3.2 0.00 0.00 0.00 89 1020.5
20260903033543 12 355 1.6 3.2 0.00 0.00 0.00 89 1020.5
20260903033443 12 355 1.6 3.2 0.00 0.00 0.00 89 1020.5
20260903033342 12 355 1.6 3.2 0.00 0.00 0.00 89 1020.5
20260903033301 12 355 0.0 3.2 0.00 0.00 0.00 89 1020.5
20260903033242 12 355 0.0 3.2 0.00 0.00 0.00 89 1020.5
20260903033142 12 355 0.0 3.2 0.00 0.00 0.00 89 1020.6
20260903033042 12 355 0.0 3.2 0.00 0.00 0.00 89 1020.5
20260903032938 12 355 0.0 3.2 0.00 0.00 0.00 89 1020.6
20260903032839 12 355 0.0 3.2 0.00 0.00 0.00 89 1020.6
20260903032801 12 350 0.0 3.2 0.00 0.00 0.00 89 1020.6
20260903032738 12 350 0.0 3.2 0.00 0.00 0.00 89 1020.6
20260903032639 12 342 0.0 1.6 0.00 0.00 0.00 89 1020.6
20260903032539 12 340 0.0 0.0 0.00 0.00 0.00 89 1020.6
20260903032523 12 336 0.0 0.0 0.00 0.00 0.00 88 1020.7
20260903032519 12 340 0.0 0.0 0.00 0.00 0.00 89 1020.7
20260903032515 12 336 0.0 0.0 0.00 0.00 0.00 89 1020.7
20260903032238 12 336 0.0 0.0 0.00 0.00 0.00 88 1020.7
20260903032138 12 336 0.0 0.0 0.00 0.00 0.00 88 1020.6
20260903032038 12 336 0.0 0.0 0.00 0.00 0.00 88 1020.7
20260903031938 12 336 0.0 0.0 0.00 0.00 0.00 88 1020.7
20260903031839 12 336 0.0 0.0 0.00 0.00 0.00 88 1020.7
20260903031802 12 336 0.0 0.0 0.00 0.00 0.00 88 1020.7
20260903031738 12 336 0.0 1.6 0.00 0.00 0.00 88 1020.7
20260903031638 12 336 0.0 1.6 0.00 0.00 0.00 88 1020.7
20260903031538 12 336 0.0 3.2 0.00 0.00 0.00 88 1020.7
20260903031439 12 336 0.0 3.2 0.00 0.00 0.00 88 1020.7
20260903031339 12 336 1.6 3.2 0.00 0.00 0.00 88 1020.7
20260903031300 12 336 1.6 3.2 0.00 0.00 0.00 88 1020.7
20260903031238 12 336 1.6 3.2 0.00 0.00 0.00 88 1020.7
20260903031139 12 336 1.6 3.2 0.00 0.00 0.00 88 1020.7
20260903031035 12 336 1.6 3.2 0.00 0.00 0.00 88 1020.7
20260903031020 12 336 1.6 3.2 0.00 0.00 0.00 88 1020.7
20260903031016 12 336 1.6 3.2 0.00 0.00 0.00 88 1020.7
20260903030735 12 336 1.6 3.2 0.00 0.00 0.00 88 1020.7
20260903030635 12 336 1.6 3.2 0.00 0.00 0.00 88 1020.7
20260903030535 12 336 0.0 3.2 0.00 0.00 0.00 88 1020.7
20260903030435 12 336 0.0 3.2 0.00 0.00 0.00 88 1020.7
20260903030334 12 336 0.0 3.2 0.00 0.00 0.00 88 1020.7
20260903030301 12 336 0.0 3.2 0.00 0.00 0.00 88 1020.7
20260903030235 12 336 0.0 3.2 0.00 0.00 0.00 88 1020.7
20260903030134 12 336 0.0 0.0 0.00 0.00 0.00 88 1020.7
20260903030034 12 335 0.0 0.0 0.00 0.00 0.00 88 1020.7
20260903030021 12 335 0.0 0.0 0.00 0.00 0.00 88 1020.7
20260903030017 12 335 0.0 0.0 0.00 0.00 0.00 88 1020.7
20260903025734 12 335 0.0 0.0 0.00 0.00 0.00 88 1020.7
20260903025634 12 335 0.0 0.0 0.00 0.00 0.00 88 1020.7
20260903025534 12 335 0.0 0.0 0.00 0.00 0.00 88 1020.7
20260903025434 12 335 0.0 0.0 0.00 0.00 0.00 88 1020.7
20260903025335 12 335 0.0 0.0 0.00 0.00 0.00 88 1020.7
20260903025302 12 335 0.0 0.0 0.00 0.00 0.00 88 1020.7
20260903025234 12 335 0.0 0.0 0.00 0.00 0.00 88 1020.7
20260903025135 12 335 0.0 0.0 0.00 0.00 0.00 88 1020.7
20260903025035 12 335 0.0 0.0 0.00 0.00 0.00 88 1020.6
20260903024935 12 335 0.0 0.0 0.00 0.00 0.00 88 1020.6
20260903024834 12 335 0.0 0.0 0.00 0.00 0.00 88 1020.7
20260903024801 12 335 0.0 0.0 0.00 0.00 0.00 87 1020.6
20260903024735 12 335 0.0 0.0 0.00 0.00 0.00 87 1020.6
20260903024635 12 335 0.0 0.0 0.00 0.00 0.00 87 1020.6
20260903024535 12 335 0.0 0.0 0.00 0.00 0.00 87 1020.6
20260903024430 12 333 0.0 0.0 0.00 0.00 0.00 87 1020.6
20260903024330 12 333 0.0 0.0 0.00 0.00 0.00 87 1020.6
20260903024301 13 333 0.0 0.0 0.00 0.00 0.00 87 1020.7
20260903024231 13 333 0.0 0.0 0.00 0.00 0.00 87 1020.7
20260903024131 13 333 0.0 0.0 0.00 0.00 0.00 87 1020.6
20260903024030 13 333 0.0 0.0 0.00 0.00 0.00 87 1020.7
20260903023930 13 333 0.0 0.0 0.00 0.00 0.00 87 1020.7
20260903023801 13 333 0.0 0.0 0.00 0.00 0.00 87 1020.7
20260903023730 13 333 0.0 0.0 0.00 0.00 0.00 87 1020.7
20260903023630 13 333 0.0 0.0 0.00 0.00 0.00 87 1020.7
20260903023530 13 333 0.0 0.0 0.00 0.00 0.00 87 1020.7
20260903023431 13 333 0.0 0.0 0.00 0.00 0.00 87 1020.7
20260903023304 13 333 0.0 0.0 0.00 0.00 0.00 87 1020.7
20260903023231 13 333 0.0 0.0 0.00 0.00 0.00 87 1020.7
20260903023131 13 333 0.0 0.0 0.00 0.00 0.00 87 1020.7
20260903023030 13 333 0.0 0.0 0.00 0.00 0.00 87 1020.7
20260903022930 13 333 0.0 0.0 0.00 0.00 0.00 87 1020.7
20260903022803 13 333 0.0 0.0 0.00 0.00 0.00 87 1020.7
20260903022730 13 333 0.0 0.0 0.00 0.00 0.00 87 1020.7
20260903022630 13 333 0.0 0.0 0.00 0.00 0.00 87 1020.7
20260903022529 13 333 0.0 0.0 0.00 0.00 0.00 87 1020.7
20260903022430 13 333 0.0 0.0 0.00 0.00 0.00 87 1020.7
20260903022330 13 333 0.0 0.0 0.00 0.00 0.00 87 1020.7
20260903022301 13 333 0.0 0.0 0.00 0.00 0.00 87 1020.8
20260903022229 13 333 0.0 0.0 0.00 0.00 0.00 87 1020.8
20260903022129 13 333 0.0 0.0 0.00 0.00 0.00 87 1020.8
20260903022030 13 333 0.0 0.0 0.00 0.00 0.00 87 1020.8
20260903021930 13 333 0.0 0.0 0.00 0.00 0.00 87 1020.7
20260903021801 13 333 0.0 0.0 0.00 0.00 0.00 87 1020.8
20260903021729 13 333 0.0 0.0 0.00 0.00 0.00 87 1020.8
20260903021629 13 333 0.0 0.0 0.00 0.00 0.00 87 1020.7
20260903021529 13 333 0.0 0.0 0.00 0.00 0.00 87 1020.7
20260903021427 13 333 0.0 0.0 0.00 0.00 0.00 87 1020.7
20260903021322 13 333 0.0 0.0 0.00 0.00 0.00 87 1020.6
20260903021301 13 333 0.0 0.0 0.00 0.00 0.00 87 1020.7
20260903021222 13 333 0.0 0.0 0.00 0.00 0.00 87 1020.7
20260903021122 13 333 0.0 0.0 0.00 0.00 0.00 87 1020.6
20260903021023 13 333 0.0 0.0 0.00 0.00 0.00 87 1020.7
20260903020922 13 333 0.0 0.0 0.00 0.00 0.00 87 1020.6
20260903020801 13 333 0.0 0.0 0.00 0.00 0.00 87 1020.7
20260903020722 13 333 0.0 0.0 0.00 0.00 0.00 87 1020.7
20260903020620 13 333 0.0 0.0 0.00 0.00 0.00 87 1020.7
20260903020518 13 333 0.0 0.0 0.00 0.00 0.00 87 1020.6
20260903020416 13 333 0.0 0.0 0.00 0.00 0.00 87 1020.6
20260903020301 13 333 0.0 0.0 0.00 0.00 0.00 87 1020.6
20260903020215 13 333 0.0 0.0 0.00 0.00 0.00 87 1020.6
20260903020115 13 333 0.0 0.0 0.00 0.00 0.00 87 1020.6
20260903020013 13 333 0.0 0.0 0.00 0.00 0.00 87 1020.7
20260903015909 13 333 0.0 0.0 0.00 0.00 0.00 87 1020.6
20260903015800 13 333 0.0 0.0 0.00 0.00 0.00 87 1020.7
20260903015704 13 333 0.0 0.0 0.00 0.00 0.00 87 1020.6
20260903015601 13 333 0.0 0.0 0.00 0.00 0.00 87 1020.6
20260903015501 13 333 0.0 0.0 0.00 0.00 0.00 87 1020.6
20260903015401 13 333 0.0 0.0 0.00 0.00 0.00 87 1020.6
20260903015301 13 333 0.0 0.0 0.00 0.00 0.00 87 1020.6
20260903015201 13 333 0.0 0.0 0.00 0.00 0.00 87 1020.6
20260903015101 13 333 0.0 0.0 0.00 0.00 0.00 87 1020.6
20260903015001 13 333 0.0 0.0 0.00 0.00 0.00 87 1020.6
20260903014901 13 333 0.0 0.0 0.00 0.00 0.00 87 1020.6
20260903014802 13 333 0.0 0.0 0.00 0.00 0.00 87 1020.6
20260903014701 13 333 0.0 0.0 0.00 0.00 0.00 87 1020.6
20260903014601 13 333 0.0 0.0 0.00 0.00 0.00 87 1020.6
20260903014521 13 333 0.0 0.0 0.00 0.00 0.00 87 1020.6
20260903014517 13 333 0.0 0.0 0.00 0.00 0.00 87 1020.6
20260903014513 13 333 0.0 0.0 0.00 0.00 0.00 87 1020.6
20260903014201 13 329 0.0 0.0 0.00 0.00 0.00 87 1020.6
20260903014101 13 329 0.0 0.0 0.00 0.00 0.00 87 1020.6
20260903014020 13 329 0.0 0.0 0.00 0.00 0.00 87 1020.6
20260903014016 13 329 0.0 0.0 0.00 0.00 0.00 87 1020.6
20260903014012 13 329 0.0 0.0 0.00 0.00 0.00 87 1020.7
20260903013700 13 329 0.0 0.0 0.00 0.00 0.00 87 1020.7
20260903013601 13 326 0.0 0.0 0.00 0.00 0.00 87 1020.7
20260903013501 13 326 0.0 0.0 0.00 0.00 0.00 87 1020.7
20260903013401 13 326 0.0 0.0 0.00 0.00 0.00 87 1020.7
20260903013301 13 326 0.0 0.0 0.00 0.00 0.00 87 1020.7
20260903013201 13 326 0.0 0.0 0.00 0.00 0.00 87 1020.7
20260903013101 13 326 0.0 0.0 0.00 0.00 0.00 87 1020.7
20260903013001 13 326 0.0 0.0 0.00 0.00 0.00 87 1020.7
20260903012901 13 326 0.0 0.0 0.00 0.00 0.00 86 1020.7
20260903012800 13 326 0.0 0.0 0.00 0.00 0.00 86 1020.7
20260903012700 13 326 0.0 0.0 0.00 0.00 0.00 86 1020.7
20260903012601 13 326 0.0 0.0 0.00 0.00 0.00 86 1020.7
20260903012501 13 326 0.0 0.0 0.00 0.00 0.00 86 1020.7
20260903012401 13 326 0.0 0.0 0.00 0.00 0.00 86 1020.7
20260903012301 13 326 0.0 0.0 0.00 0.00 0.00 86 1020.6
20260903012201 13 326 0.0 0.0 0.00 0.00 0.00 86 1020.6
20260903012100 13 326 0.0 0.0 0.00 0.00 0.00 86 1020.6
20260903012001 13 326 0.0 0.0 0.00 0.00 0.00 86 1020.6
20260903011901 13 326 0.0 0.0 0.00 0.00 0.00 86 1020.6
20260903011801 13 326 0.0 0.0 0.00 0.00 0.00 86 1020.6
20260903011706 13 326 0.0 0.0 0.00 0.00 0.00 86 1020.6
20260903011601 13 326 0.0 0.0 0.00 0.00 0.00 86 1020.6
20260903011501 13 326 0.0 0.0 0.00 0.00 0.00 86 1020.6
20260903011401 13 326 0.0 0.0 0.00 0.00 0.00 86 1020.6
20260903011301 13 326 0.0 0.0 0.00 0.00 0.00 86 1020.5
20260903011205 13 326 0.0 0.0 0.00 0.00 0.00 86 1020.5
20260903011101 13 326 0.0 0.0 0.00 0.00 0.00 86 1020.5
20260903011000 13 326 0.0 0.0 0.00 0.00 0.00 86 1020.5
20260903010900 13 326 0.0 0.0 0.00 0.00 0.00 86 1020.5
20260903010800 13 326 0.0 0.0 0.00 0.00 0.00 86 1020.5
20260903010702 13 326 0.0 0.0 0.00 0.00 0.00 86 1020.5
20260903010600 13 326 0.0 0.0 0.00 0.00 0.00 86 1020.5
20260903010500 13 326 0.0 0.0 0.00 0.00 0.00 86 1020.5
20260903010401 13 326 0.0 0.0 0.00 0.00 0.00 86 1020.5
20260903010301 13 326 0.0 0.0 0.00 0.00 0.00 86 1020.5
20260903010200 13 326 0.0 0.0 0.00 0.00 0.00 86 1020.5
20260903010101 13 326 0.0 0.0 0.00 0.00 0.00 86 1020.5
20260903010000 13 325 0.0 0.0 0.00 0.00 0.00 86 1020.5
20260903005900 13 326 0.0 0.0 0.00 0.00 0.00 86 1020.5
20260903005800 13 326 0.0 0.0 0.00 0.00 0.00 86 1020.5
20260903005701 13 325 0.0 0.0 0.00 0.00 0.00 86 1020.5
20260903005601 13 326 0.0 0.0 0.00 0.00 0.00 86 1020.5
20260903005521 13 326 0.0 0.0 0.00 0.00 0.00 86 1020.5
20260903005516 13 326 0.0 0.0 0.00 0.00 0.00 86 1020.6
20260903005512 13 325 0.0 0.0 0.00 0.00 0.00 86 1020.5
20260903005201 13 325 0.0 0.0 0.00 0.00 0.00 86 1020.6
20260903005101 13 325 0.0 0.0 0.00 0.00 0.00 86 1020.6
20260903005019 13 325 0.0 0.0 0.00 0.00 0.00 86 1020.6
20260903005015 13 326 0.0 0.0 0.00 0.00 0.00 85 1020.5
20260903005011 13 325 0.0 0.0 0.00 0.00 0.00 86 1020.5
20260903004701 13 325 0.0 0.0 0.00 0.00 0.00 86 1020.6
20260903004601 13 325 0.0 0.0 0.00 0.00 0.00 85 1020.5
20260903004501 13 325 0.0 0.0 0.00 0.00 0.00 85 1020.6
20260903004400 13 325 0.0 0.0 0.00 0.00 0.00 85 1020.6
20260903004301 13 325 0.0 0.0 0.00 0.00 0.00 85 1020.6
20260903004201 13 325 0.0 0.0 0.00 0.00 0.00 85 1020.6
20260903004101 13 325 0.0 0.0 0.00 0.00 0.00 85 1020.6
20260903004019 13 325 0.0 0.0 0.00 0.00 0.00 85 1020.6
20260903004015 13 325 0.0 0.0 0.00 0.00 0.00 85 1020.6
20260903004011 13 325 0.0 0.0 0.00 0.00 0.00 85 1020.5
20260903003701 13 325 0.0 0.0 0.00 0.00 0.00 85 1020.5
20260903003601 13 325 0.0 0.0 0.00 0.00 0.00 86 1020.5
20260903003501 13 325 0.0 0.0 0.00 0.00 0.00 86 1020.5
20260903003401 13 325 0.0 0.0 0.00 0.00 0.00 85 1020.5
20260903003301 13 325 0.0 0.0 0.00 0.00 0.00 85 1020.5
20260903003200 13 325 0.0 0.0 0.00 0.00 0.00 86 1020.5
20260903003101 14 325 0.0 0.0 0.00 0.00 0.00 86 1020.5
20260903003001 13 325 0.0 0.0 0.00 0.00 0.00 86 1020.6
20260903002900 14 325 0.0 0.0 0.00 0.00 0.00 85 1020.5
20260903002801 14 325 0.0 0.0 0.00 0.00 0.00 86 1020.6
20260903002701 14 325 0.0 0.0 0.00 0.00 0.00 86 1020.6
20260903002601 14 325 0.0 0.0 0.00 0.00 0.00 85 1020.6
20260903002501 14 326 0.0 0.0 0.00 0.00 0.00 85 1020.6
20260903002401 14 326 0.0 0.0 0.00 0.00 0.00 85 1020.6
20260903002301 14 326 0.0 0.0 0.00 0.00 0.00 85 1020.6
20260903002201 14 325 0.0 0.0 0.00 0.00 0.00 85 1020.5
20260903002101 14 325 0.0 0.0 0.00 0.00 0.00 85 1020.6
20260903002001 14 325 0.0 0.0 0.00 0.00 0.00 85 1020.6
20260903001901 14 326 0.0 0.0 0.00 0.00 0.00 85 1020.6
20260903001801 14 326 0.0 0.0 0.00 0.00 0.00 85 1020.6
20260903001701 14 326 0.0 0.0 0.00 0.00 0.00 85 1020.6
20260903001601 14 326 0.0 0.0 0.00 0.00 0.00 85 1020.6
20260903001500 14 326 0.0 0.0 0.00 0.00 0.00 85 1020.6
20260903001400 14 326 0.0 0.0 0.00 0.00 0.00 85 1020.6
20260903001301 14 326 0.0 0.0 0.00 0.00 0.00 84 1020.6
20260903001201 14 326 0.0 0.0 0.00 0.00 0.00 84 1020.6
20260903001101 14 326 0.0 0.0 0.00 0.00 0.00 84 1020.6
20260903001019 14 326 0.0 0.0 0.00 0.00 0.00 84 1020.6
20260903001015 14 326 0.0 0.0 0.00 0.00 0.00 84 1020.6
20260903001011 14 326 0.0 0.0 0.00 0.00 0.00 85 1020.7
20260903000700 14 326 0.0 0.0 0.00 0.00 0.00 85 1020.6
20260903000601 14 326 0.0 0.0 0.00 0.00 0.00 84 1020.6
20260903000500 14 326 0.0 0.0 0.00 0.00 0.00 84 1020.6
20260903000402 14 326 0.0 0.0 0.00 0.00 0.00 84 1020.6
20260903000303 14 326 0.0 0.0 0.00 0.00 0.00 84 1020.6
20260903000200 14 326 0.0 0.0 0.00 0.00 0.00 84 1020.6
20260903000100 14 326 0.0 0.0 0.00 0.00 0.00 84 1020.7
20260903000000 14 326 0.0 0.0 0.00 0.00 0.00 84 1020.6
20260902235901 14 326 0.0 0.0 0.00 0.00 0.00 84 1020.6
20260902235801 14 326 0.0 0.0 0.00 0.00 0.00 84 1020.6
20260902235701 14 326 0.0 0.0 0.00 0.00 0.00 84 1020.6
20260902235601 14 326 0.0 0.0 0.00 0.00 0.00 84 1020.6
20260902235520 14 326 0.0 0.0 0.00 0.00 0.00 84 1020.6
20260902235516 14 326 0.0 0.0 0.00 0.00 0.00 84 1020.6
20260902235512 14 326 0.0 0.0 0.00 0.00 0.00 84 1020.5
20260902235201 14 326 0.0 0.0 0.00 0.00 0.00 84 1020.6
20260902235101 14 326 0.0 0.0 0.00 0.00 0.00 84 1020.6
20260902235001 14 326 0.0 0.0 0.00 0.00 0.00 84 1020.6
20260902234901 14 326 0.0 0.0 0.00 0.00 0.00 84 1020.6
20260902234802 14 326 0.0 0.0 0.00 0.00 0.00 84 1020.6
20260902234701 14 326 0.0 0.0 0.00 0.00 0.00 84 1020.6
20260902234601 14 326 0.0 0.0 0.00 0.00 0.00 84 1020.5
20260902234500 14 326 0.0 0.0 0.00 0.00 0.00 84 1020.6
20260902234401 14 326 0.0 0.0 0.00 0.00 0.00 84 1020.5
20260902234301 14 326 0.0 0.0 0.00 0.00 0.00 84 1020.5
20260902234201 14 326 0.0 0.0 0.00 0.00 0.00 84 1020.5
20260902234101 14 326 0.0 0.0 0.00 0.00 0.00 84 1020.5
20260902234021 14 326 0.0 0.0 0.00 0.00 0.00 84 1020.5
20260902234017 14 326 0.0 0.0 0.00 0.00 0.00 84 1020.6
20260902234013 14 326 0.0 0.0 0.00 0.00 0.00 84 1020.6
20260902233701 14 326 0.0 0.0 0.00 0.00 0.00 84 1020.5
20260902233600 14 325 0.0 0.0 0.00 0.00 0.00 84 1020.5
20260902233501 14 325 0.0 0.0 0.00 0.00 0.00 84 1020.5
20260902233401 14 325 0.0 0.0 0.00 0.00 0.00 84 1020.6
20260902233301 14 325 0.0 0.0 0.00 0.00 0.00 84 1020.5
20260902233201 14 325 0.0 0.0 0.00 0.00 0.00 84 1020.6
20260902233101 14 325 0.0 0.0 0.00 0.00 0.00 84 1020.5
20260902233021 14 325 0.0 0.0 0.00 0.00 0.00 84 1020.6
20260902233017 14 325 0.0 0.0 0.00 0.00 0.00 84 1020.6
20260902233013 14 325 0.0 0.0 0.00 0.00 0.00 84 1020.6
20260902232701 14 325 0.0 0.0 0.00 0.00 0.00 84 1020.6
20260902232601 14 325 0.0 0.0 0.00 0.00 0.00 84 1020.6
20260902232501 14 323 0.0 0.0 0.00 0.00 0.00 84 1020.6
20260902232401 14 323 0.0 0.0 0.00 0.00 0.00 83 1020.6
20260902232301 14 323 0.0 0.0 0.00 0.00 0.00 83 1020.7
20260902232201 14 322 0.0 0.0 0.00 0.00 0.00 83 1020.6
20260902232101 14 323 0.0 0.0 0.00 0.00 0.00 83 1020.6
20260902232021 14 323 0.0 0.0 0.00 0.00 0.00 83 1020.6
20260902232017 14 322 0.0 0.0 0.00 0.00 0.00 83 1020.6
20260902232013 14 323 0.0 0.0 0.00 0.00 0.00 83 1020.6
20260902231701 14 323 0.0 0.0 0.00 0.00 0.00 83 1020.6
20260902231601 14 323 0.0 0.0 0.00 0.00 0.00 83 1020.6
20260902231501 14 323 0.0 0.0 0.00 0.00 0.00 83 1020.6
20260902231401 14 323 0.0 0.0 0.00 0.00 0.00 83 1020.7
20260902231301 14 322 0.0 0.0 0.00 0.00 0.00 83 1020.6
20260902231201 14 323 0.0 0.0 0.00 0.00 0.00 83 1020.7
20260902231101 14 323 0.0 0.0 0.00 0.00 0.00 83 1020.6
20260902231001 15 322 0.0 0.0 0.00 0.00 0.00 83 1020.6
20260902230901 14 323 0.0 0.0 0.00 0.00 0.00 83 1020.6
20260902230801 14 323 0.0 0.0 0.00 0.00 0.00 84 1020.6
20260902230701 14 322 0.0 0.0 0.00 0.00 0.00 84 1020.6
20260902230601 15 322 0.0 0.0 0.00 0.00 0.00 84 1020.6
20260902230501 14 322 0.0 0.0 0.00 0.00 0.00 84 1020.6
20260902230401 15 322 0.0 0.0 0.00 0.00 0.00 84 1020.6
20260902230300 15 322 0.0 0.0 0.00 0.00 0.00 83 1020.6
20260902230200 15 322 0.0 0.0 0.00 0.00 0.00 83 1020.6
20260902230100 15 322 0.0 0.0 0.00 0.00 0.00 83 1020.6
20260902225958 14 322 0.0 0.0 0.00 0.00 0.00 83 1020.6
20260902225856 15 322 0.0 0.0 0.00 0.00 0.00 83 1020.6
20260902225801 15 322 0.0 0.0 0.00 0.00 0.00 83 1020.6
20260902225756 15 322 0.0 0.0 0.00 0.00 0.00 83 1020.6
20260902225654 15 322 0.0 0.0 0.00 0.00 0.00 83 1020.6
20260902225554 15 322 0.0 0.0 0.00 0.00 0.00 83 1020.5
20260902225452 15 322 0.0 0.0 0.00 0.00 0.00 83 1020.5
20260902225352 15 322 0.0 0.0 0.00 0.00 0.00 83 1020.6
20260902225302 15 322 0.0 0.0 0.00 0.00 0.00 83 1020.6
20260902225251 15 322 0.0 0.0 0.00 0.00 0.00 83 1020.6
20260902225151 15 322 0.0 0.0 0.00 0.00 0.00 83 1020.6
20260902225052 15 322 0.0 0.0 0.00 0.00 0.00 83 1020.6
20260902224949 15 322 0.0 0.0 0.00 0.00 0.00 83 1020.6
20260902224850 15 322 0.0 0.0 0.00 0.00 0.00 83 1020.6
20260902224801 15 322 0.0 0.0 0.00 0.00 0.00 83 1020.6
20260902224748 15 322 0.0 0.0 0.00 0.00 0.00 83 1020.6
20260902224646 15 322 0.0 0.0 0.00 0.00 0.00 83 1020.6
20260902224546 15 322 0.0 0.0 0.00 0.00 0.00 83 1020.6
20260902224444 15 322 0.0 0.0 0.00 0.00 0.00 83 1020.6
20260902224344 15 322 0.0 0.0 0.00 0.00 0.00 82 1020.6
20260902224301 15 322 0.0 0.0 0.00 0.00 0.00 82 1020.6
20260902224242 15 322 0.0 0.0 0.00 0.00 0.00 82 1020.6
20260902224142 15 322 0.0 0.0 0.00 0.00 0.00 82 1020.6
20260902224042 15 322 0.0 0.0 0.00 0.00 0.00 82 1020.6
20260902223942 15 322 0.0 0.0 0.00 0.00 0.00 82 1020.6
20260902223842 15 322 0.0 0.0 0.00 0.00 0.00 82 1020.7
20260902223800 15 322 0.0 0.0 0.00 0.00 0.00 82 1020.7
20260902223740 15 322 0.0 0.0 0.00 0.00 0.00 82 1020.7
20260902223638 15 322 0.0 0.0 0.00 0.00 0.00 82 1020.6
20260902223538 15 322 0.0 0.0 0.00 0.00 0.00 82 1020.6
20260902223435 15 322 0.0 0.0 0.00 0.00 0.00 82 1020.7
20260902223336 15 322 0.0 0.0 0.00 0.00 0.00 82 1020.7
20260902223301 15 322 0.0 0.0 0.00 0.00 0.00 82 1020.7
20260902223234 15 322 0.0 0.0 0.00 0.00 0.00 82 1020.7
20260902223132 15 322 0.0 0.0 0.00 0.00 0.00 82 1020.6
20260902223029 15 322 0.0 0.0 0.00 0.00 0.00 82 1020.7
20260902222929 15 322 0.0 0.0 0.00 0.00 0.00 82 1020.7
20260902222801 15 322 0.0 0.0 0.00 0.00 0.00 82 1020.7
20260902222729 15 322 0.0 0.0 0.00 0.00 0.00 81 1020.7
20260902222630 15 322 0.0 0.0 0.00 0.00 0.00 81 1020.6
20260902222529 15 322 0.0 0.0 0.00 0.00 0.00 81 1020.6
20260902222429 15 322 0.0 0.0 0.00 0.00 0.00 81 1020.7
20260902222329 15 322 0.0 0.0 0.00 0.00 0.00 81 1020.7
20260902222301 15 322 0.0 0.0 0.00 0.00 0.00 81 1020.7
20260902222229 15 322 0.0 0.0 0.00 0.00 0.00 81 1020.7
20260902222128 15 322 0.0 0.0 0.00 0.00 0.00 81 1020.6
20260902222029 15 322 0.0 0.0 0.00 0.00 0.00 81 1020.7
20260902221929 15 322 0.0 0.0 0.00 0.00 0.00 81 1020.7
20260902221829 15 322 0.0 0.0 0.00 0.00 0.00 81 1020.7
20260902221802 15 322 0.0 0.0 0.00 0.00 0.00 80 1020.7
20260902221729 15 322 0.0 0.0 0.00 0.00 0.00 80 1020.7
20260902221629 15 322 0.0 0.0 0.00 0.00 0.00 80 1020.7
20260902221529 15 322 0.0 0.0 0.00 0.00 0.00 80 1020.7
20260902221429 15 322 0.0 0.0 0.00 0.00 0.00 80 1020.7
20260902221329 15 322 0.0 0.0 0.00 0.00 0.00 80 1020.7
20260902221229 15 322 0.0 0.0 0.00 0.00 0.00 80 1020.6
20260902221129 15 322 0.0 0.0 0.00 0.00 0.00 80 1020.6
20260902221029 15 322 0.0 0.0 0.00 0.00 0.00 80 1020.6
20260902220929 15 322 0.0 0.0 0.00 0.00 0.00 80 1020.6
20260902220828 15 322 0.0 0.0 0.00 0.00 0.00 80 1020.6
20260902220728 15 322 0.0 0.0 0.00 0.00 0.00 80 1020.6
20260902220628 15 322 0.0 0.0 0.00 0.00 0.00 80 1020.6
20260902220528 15 322 0.0 0.0 0.00 0.00 0.00 80 1020.6
20260902220428 15 322 0.0 0.0 0.00 0.00 0.00 80 1020.6
20260902220328 15 322 0.0 0.0 0.00 0.00 0.00 80 1020.6
20260902220229 15 322 0.0 0.0 0.00 0.00 0.00 80 1020.6
20260902220129 15 322 0.0 0.0 0.00 0.00 0.00 80 1020.6
20260902220029 15 322 0.0 0.0 0.00 0.00 0.00 80 1020.6
20260902215929 15 322 0.0 0.0 0.00 0.00 0.00 80 1020.6
20260902215829 15 322 0.0 0.0 0.00 0.00 0.00 80 1020.6
20260902215729 15 322 0.0 0.0 0.00 0.00 0.00 80 1020.6
20260902215629 15 322 0.0 0.0 0.00 0.00 0.00 80 1020.6
20260902215529 15 322 0.0 0.0 0.00 0.00 0.00 80 1020.6
20260902215510 15 322 0.0 0.0 0.00 0.00 0.00 80 1020.5
20260902215505 15 322 0.0 0.0 0.00 0.00 0.00 80 1020.6
20260902215501 15 322 0.0 0.0 0.00 0.00 0.00 80 1020.6
20260902215229 15 322 0.0 0.0 0.00 0.00 0.00 80 1020.6
20260902215129 15 322 0.0 0.0 0.00 0.00 0.00 80 1020.6
20260902215028 16 322 0.0 0.0 0.00 0.00 0.00 80 1020.5
20260902214929 16 322 0.0 0.0 0.00 0.00 0.00 80 1020.5
20260902214829 16 322 0.0 0.0 0.00 0.00 0.00 80 1020.5
20260902214749 16 322 0.0 0.0 0.00 0.00 0.00 80 1020.6
20260902214729 16 322 0.0 0.0 0.00 0.00 0.00 79 1020.6
20260902214629 16 322 0.0 0.0 0.00 0.00 0.00 79 1020.5
20260902214529 16 322 0.0 0.0 0.00 0.00 0.00 79 1020.5
20260902214429 16 322 0.0 0.0 0.00 0.00 0.00 79 1020.5
20260902214329 16 322 0.0 0.0 0.00 0.00 0.00 79 1020.5
20260902214229 16 322 0.0 0.0 0.00 0.00 0.00 78 1020.5
20260902214128 16 322 0.0 0.0 0.00 0.00 0.00 79 1020.5
20260902214030 16 322 0.0 0.0 0.00 0.00 0.00 79 1020.5
20260902213929 16 322 0.0 0.0 0.00 0.00 0.00 79 1020.4
20260902213828 16 322 0.0 0.0 0.00 0.00 0.00 79 1020.4
20260902213728 16 322 0.0 0.0 0.00 0.00 0.00 79 1020.4
20260902213628 16 322 0.0 0.0 0.00 0.00 0.00 78 1020.4
20260902213532 16 322 0.0 0.0 0.00 0.00 0.00 78 1020.4
20260902213427 16 322 0.0 0.0 0.00 0.00 0.00 78 1020.4
20260902213327 16 322 0.0 0.0 0.00 0.00 0.00 78 1020.4
20260902213227 16 322 0.0 0.0 0.00 0.00 0.00 78 1020.4
20260902213126 16 322 0.0 0.0 0.00 0.00 0.00 78 1020.4
20260902213031 16 322 0.0 0.0 0.00 0.00 0.00 78 1020.3
20260902212921 16 322 0.0 0.0 0.00 0.00 0.00 78 1020.3
20260902212821 16 322 0.0 0.0 0.00 0.00 0.00 77 1020.3
20260902212741 16 322 0.0 0.0 0.00 0.00 0.00 77 1020.3
20260902212721 16 322 0.0 0.0 0.00 0.00 0.00 77 1020.4
20260902212621 16 322 0.0 0.0 0.00 0.00 0.00 77 1020.3
20260902212525 16 322 0.0 0.0 0.00 0.00 0.00 77 1020.4
20260902212417 16 322 0.0 0.0 0.00 0.00 0.00 77 1020.3
20260902212317 16 322 0.0 0.0 0.00 0.00 0.00 77 1020.3
20260902212216 16 322 0.0 0.0 0.00 0.00 0.00 77 1020.3
20260902212114 16 322 0.0 0.0 0.00 0.00 0.00 77 1020.3
20260902212016 16 322 0.0 0.0 0.00 0.00 0.00 76 1020.3
20260902211914 16 322 0.0 0.0 0.00 0.00 0.00 77 1020.3
20260902211814 16 322 0.0 0.0 0.00 0.00 0.00 76 1020.3
20260902211715 16 322 0.0 0.0 0.00 0.00 0.00 76 1020.3
20260902211615 16 322 0.0 0.0 0.00 0.00 0.00 76 1020.2
20260902211515 16 322 0.0 0.0 0.00 0.00 0.00 76 1020.3
20260902211415 16 322 0.0 0.0 0.00 0.00 0.00 76 1020.3
20260902211315 16 322 0.0 0.0 0.00 0.00 0.00 76 1020.2
20260902211215 16 322 0.0 0.0 0.00 0.00 0.00 76 1020.2
20260902211211 17 322 0.0 0.0 0.00 0.00 0.00 75 1020.2
20260902211207 17 322 0.0 0.0 0.00 0.00 0.00 76 1020.2
20260902211202 16 322 0.0 0.0 0.00 0.00 0.00 76 1020.3
20260902211158 17 322 0.0 0.0 0.00 0.00 0.00 76 1020.2
20260902211150 17 322 0.0 0.0 0.00 0.00 0.00 76 1020.2
20260902211146 17 322 0.0 0.0 0.00 0.00 0.00 76 1020.2
20260902210709 17 322 0.0 0.0 0.00 0.00 0.00 76 1020.2
20260902210607 17 322 0.0 0.0 0.00 0.00 0.00 75 1020.2
20260902210551 17 322 0.0 0.0 0.00 0.00 0.00 75 1020.2
20260902210450 17 322 0.0 0.0 0.00 0.00 0.00 75 1020.2
20260902210446 17 322 0.0 0.0 0.00 0.00 0.00 75 1020.2
20260902210202 17 322 0.0 0.0 0.00 0.00 0.00 75 1020.2
20260902210100 17 322 0.0 0.0 0.00 0.00 0.00 74 1020.2
20260902210001 17 322 0.0 0.0 0.00 0.00 0.00 74 1020.1
20260902205902 17 322 0.0 0.0 0.00 0.00 0.00 74 1020.1
20260902205802 17 322 0.0 0.0 0.00 0.00 0.00 74 1020.1
20260902205733 17 322 0.0 0.0 0.00 0.00 0.00 74 1020.1
20260902205700 17 322 0.0 0.0 0.00 0.00 0.00 74 1020.1
20260902205601 17 322 0.0 0.0 0.00 0.00 0.00 74 1020.1
20260902205501 17 322 0.0 0.0 0.00 0.00 0.00 74 1020.1
20260902205401 17 322 0.0 0.0 0.00 0.00 0.00 73 1020.1
20260902205233 17 322 0.0 0.0 0.00 0.00 0.00 73 1020.1
20260902205158 17 322 0.0 0.0 0.00 0.00 0.00 73 1020.1
20260902205057 17 322 0.0 0.0 0.00 0.00 0.00 73 1020.1
20260902204956 17 322 0.0 0.0 0.00 0.00 0.00 73 1020.0
20260902204854 17 322 0.0 0.0 0.00 0.00 0.00 73 1020.0
20260902204753 17 322 0.0 0.0 0.00 0.00 0.00 73 1020.0
20260902204733 17 322 0.0 0.0 0.00 0.00 0.00 72 1020.0
20260902204649 17 322 0.0 0.0 0.00 0.00 0.00 72 1020.0
20260902204548 17 322 0.0 0.0 0.00 0.00 0.00 72 1020.0
20260902204449 17 322 0.0 0.0 0.00 0.00 0.00 71 1020.1
20260902204348 17 322 0.0 0.0 0.00 0.00 0.00 71 1020.0
20260902204233 17 322 0.0 0.0 0.00 0.00 0.00 71 1020.0
20260902204144 17 322 0.0 0.0 0.00 0.00 0.00 71 1020.0
20260902204042 17 322 0.0 0.0 0.00 0.00 0.00 70 1020.0
20260902203947 18 322 0.0 0.0 0.00 0.00 0.00 71 1019.9
20260902203943 17 322 0.0 0.0 0.00 0.00 0.00 70 1020.0
20260902203937 18 322 0.0 0.0 0.00 0.00 0.00 70 1020.0
20260902203929 18 322 0.0 0.0 0.00 0.00 0.00 70 1020.0
20260902203711 18 322 0.0 0.0 0.00 0.00 0.00 70 1020.0
20260902203707 18 322 0.0 0.0 0.00 0.00 0.00 70 1020.0
20260902203448 18 322 0.0 0.0 0.00 0.00 0.00 70 1019.9
20260902203444 18 322 0.0 0.0 0.00 0.00 0.00 71 1020.0
20260902203440 18 322 0.0 0.0 0.00 0.00 0.00 71 1019.9
20260902203128 18 322 0.0 0.0 0.00 0.00 0.00 70 1019.9
20260902203029 18 322 0.0 0.0 0.00 0.00 0.00 70 1019.9
20260902202928 18 322 0.0 0.0 0.00 0.00 0.00 69 1020.0
20260902202829 18 322 0.0 0.0 0.00 0.00 0.00 68 1020.0
20260902202729 18 322 0.0 0.0 0.00 0.00 0.00 68 1020.0
20260902202629 18 322 0.0 0.0 0.00 0.00 0.00 68 1019.9
20260902202529 18 322 0.0 0.0 0.00 0.00 0.00 68 1019.9
20260902202429 18 322 0.0 0.0 0.00 0.00 0.00 68 1019.9
20260902202328 18 322 0.0 0.0 0.00 0.00 0.00 68 1019.9
20260902202229 18 322 0.0 0.0 0.00 0.00 0.00 68 1019.9
20260902202129 18 322 0.0 0.0 0.00 0.00 0.00 68 1019.9
20260902202029 18 322 0.0 0.0 0.00 0.00 0.00 68 1019.9
20260902201927 18 322 0.0 0.0 0.00 0.00 0.00 68 1019.9
20260902201827 18 322 0.0 0.0 0.00 0.00 0.00 68 1020.0
20260902201727 18 322 0.0 0.0 0.00 0.00 0.00 68 1019.9
20260902201627 18 322 0.0 0.0 0.00 0.00 0.00 68 1019.9
20260902201526 18 322 0.0 1.6 0.00 0.00 0.00 68 1020.0
20260902201454 18 322 0.0 1.6 0.00 0.00 0.00 68 1020.0
20260902201446 18 322 0.0 1.6 0.00 0.00 0.00 68 1019.9
20260902201442 18 322 0.0 1.6 0.00 0.00 0.00 68 1019.9
20260902201227 18 322 0.0 1.6 0.00 0.00 0.00 68 1020.0
20260902201127 18 322 0.0 1.6 0.00 0.00 0.00 69 1019.9
20260902201027 18 322 0.0 1.6 0.00 0.00 0.00 69 1020.0
20260902200953 18 322 0.0 1.6 0.00 0.00 0.00 69 1019.9
20260902200945 18 322 0.0 1.6 0.00 0.00 0.00 69 1019.9
20260902200941 18 322 0.0 1.6 0.00 0.00 0.00 69 1019.9
20260902200723 18 322 0.0 1.6 0.00 0.00 0.00 69 1019.9
20260902200622 18 322 0.0 1.6 0.00 0.00 0.00 69 1019.9
20260902200522 18 322 0.0 1.6 0.00 0.00 0.00 69 1019.9
20260902200422 18 322 0.0 0.0 0.00 0.00 0.00 68 1019.9
20260902200322 18 322 0.0 0.0 0.00 0.00 0.00 68 1019.9
20260902200223 18 322 0.0 0.0 0.00 0.00 0.00 68 1019.9
20260902200123 18 322 0.0 0.0 0.00 0.00 0.00 68 1019.9
20260902200023 18 322 0.0 0.0 0.00 0.00 0.00 68 1019.9
20260902195923 18 322 0.0 0.0 0.00 0.00 0.00 68 1019.9
20260902195823 18 322 0.0 0.0 0.00 0.00 0.00 68 1019.9
20260902195722 18 322 0.0 0.0 0.00 0.00 0.00 68 1019.9
20260902195622 18 322 0.0 0.0 0.00 0.00 0.00 68 1019.9
20260902195522 18 322 0.0 0.0 0.00 0.00 0.00 67 1019.9
20260902195423 18 322 0.0 0.0 0.00 0.00 0.00 68 1019.9
20260902195322 18 322 0.0 0.0 0.00 0.00 0.00 68 1019.9
20260902195222 18 322 0.0 0.0 0.00 0.00 0.00 68 1019.9
20260902195122 18 322 0.0 0.0 0.00 0.00 0.00 67 1019.9
20260902195022 18 322 0.0 0.0 0.00 0.00 0.00 67 1019.9
20260902194923 18 322 0.0 0.0 0.00 0.00 0.00 67 1019.9
20260902194819 18 322 0.0 0.0 0.00 0.00 0.00 67 1019.9
20260902194719 18 322 0.0 0.0 0.00 0.00 0.00 67 1019.9
20260902194619 18 322 0.0 1.6 0.00 0.00 0.00 67 1019.9
20260902194518 19 322 0.0 1.6 0.00 0.00 0.00 67 1019.9
20260902194419 19 322 0.0 1.6 0.00 0.00 0.00 67 1019.9
20260902194319 19 322 0.0 1.6 0.00 0.00 0.00 67 1019.9
20260902194218 19 322 0.0 1.6 0.00 0.00 0.00 66 1019.9
20260902194118 19 322 0.0 1.6 0.00 0.00 0.00 67 1019.9
20260902194018 19 322 0.0 1.6 0.00 0.00 0.00 66 1019.8
20260902193918 19 322 0.0 1.6 0.00 0.00 0.00 66 1019.9
20260902193818 19 322 0.0 1.6 0.00 0.00 0.00 66 1019.8
20260902193729 19 322 0.0 1.6 0.00 0.00 0.00 66 1019.8
20260902193718 19 322 1.6 3.2 0.00 0.00 0.00 66 1019.8
20260902193618 19 322 1.6 3.2 0.00 0.00 0.00 66 1019.8
20260902193518 19 322 1.6 3.2 0.00 0.00 0.00 66 1019.8
20260902193455 19 322 1.6 3.2 0.00 0.00 0.00 66 1019.8
20260902193450 19 322 1.6 3.2 0.00 0.00 0.00 66 1019.8
20260902193442 19 322 1.6 3.2 0.00 0.00 0.00 65 1019.8
20260902193218 19 322 1.6 3.2 0.00 0.00 0.00 66 1019.8
20260902193118 19 322 1.6 3.2 0.00 0.00 0.00 65 1019.9
20260902193019 19 322 1.6 3.2 0.00 0.00 0.00 65 1019.8
20260902192955 19 322 0.0 3.2 0.00 0.00 0.00 65 1019.8
20260902192946 19 322 0.0 3.2 0.00 0.00 0.00 65 1019.8
20260902192939 19 322 0.0 3.2 0.00 0.00 0.00 65 1019.8
20260902192715 19 322 0.0 3.2 0.00 0.00 0.00 65 1019.8
20260902192615 19 322 0.0 3.2 0.00 0.00 0.00 65 1019.8
20260902192515 19 322 0.0 1.6 0.00 0.00 0.00 65 1019.8
20260902192415 19 322 0.0 1.6 0.00 0.00 0.00 65 1019.8
20260902192315 19 322 0.0 1.6 0.00 0.00 0.00 65 1019.8
20260902192229 19 322 0.0 1.6 0.00 0.00 0.00 65 1019.8
20260902192216 19 322 0.0 1.6 0.00 0.00 0.00 64 1019.8
20260902192114 19 322 0.0 3.2 0.00 0.00 0.00 65 1019.8
20260902192014 19 322 1.6 3.2 0.00 0.00 0.00 64 1019.8
20260902191914 19 322 1.6 3.2 0.00 0.00 0.00 64 1019.8
20260902191815 19 322 1.6 3.2 0.00 0.00 0.00 64 1019.8
20260902191714 19 322 1.6 3.2 0.00 0.00 0.00 64 1019.8
20260902191614 19 322 1.6 3.2 0.00 0.00 0.00 64 1019.7
20260902191514 19 322 1.6 3.2 0.00 0.00 0.00 63 1019.7
20260902191414 19 322 1.6 3.2 0.00 0.00 0.00 63 1019.7
20260902191314 20 322 1.6 3.2 0.00 0.00 0.00 63 1019.7
20260902191214 20 322 1.6 3.2 0.00 0.00 0.00 63 1019.7
20260902191115 20 322 1.6 3.2 0.00 0.00 0.00 63 1019.7
20260902191011 20 322 1.6 3.2 0.00 0.00 0.00 63 1019.5
20260902190911 20 322 1.6 3.2 0.00 0.00 0.00 63 1019.7
20260902190811 20 322 1.6 3.2 0.00 0.00 0.00 63 1019.7
20260902190710 20 322 1.6 3.2 0.00 0.00 0.00 63 1019.7
20260902190610 20 322 1.6 3.2 0.00 0.00 0.00 63 1019.5
20260902190510 20 322 1.6 3.2 0.00 0.00 0.00 62 1019.5
20260902190410 20 322 1.6 3.2 0.00 0.00 0.00 62 1019.5
20260902190310 20 322 1.6 3.2 0.00 0.00 0.00 62 1019.5
20260902190210 20 322 1.6 3.2 0.00 0.00 0.00 62 1019.5
20260902190110 20 322 1.6 3.2 0.00 0.00 0.00 62 1019.5
20260902190011 20 322 1.6 3.2 0.00 0.00 0.00 62 1019.5
20260902185911 20 322 1.6 3.2 0.00 0.00 0.00 62 1019.5
20260902185811 20 322 1.6 3.2 0.00 0.00 0.00 63 1019.5
20260902185729 20 322 1.6 3.2 0.00 0.00 0.00 62 1019.5
20260902185711 20 322 1.6 4.8 0.00 0.00 0.00 62 1019.4
20260902185611 20 322 1.6 4.8 0.00 0.00 0.00 62 1019.5
20260902185510 20 322 3.2 6.4 0.00 0.00 0.00 62 1019.4
20260902185410 20 322 3.2 6.4 0.00 0.00 0.00 62 1019.4
20260902185310 20 322 3.2 6.4 0.00 0.00 0.00 61 1019.4
20260902185229 20 322 3.2 6.4 0.00 0.00 0.00 61 1019.4
20260902185210 20 322 3.2 6.4 0.00 0.00 0.00 61 1019.3
20260902185110 20 322 1.6 6.4 0.00 0.00 0.00 61 1019.3
20260902185010 20 322 3.2 6.4 0.00 0.00 0.00 61 1019.3
20260902184910 20 322 3.2 6.4 0.00 0.00 0.00 61 1019.3
20260902184810 20 322 3.2 6.4 0.00 0.00 0.00 60 1019.3
20260902184710 20 322 3.2 6.4 0.00 0.00 0.00 61 1019.3
20260902184608 20 322 3.2 6.4 0.00 0.00 0.00 61 1019.3
20260902184509 20 300 3.2 4.8 0.00 0.00 0.00 60 1019.3
20260902184407 20 300 3.2 6.4 0.00 0.00 0.00 60 1019.3
20260902184306 20 274 3.2 6.4 0.00 0.00 0.00 60 1019.3
20260902184207 20 274 3.2 6.4 0.00 0.00 0.00 60 1019.3
20260902184105 20 274 3.2 6.4 0.00 0.00 0.00 60 1019.2
20260902184003 20 274 3.2 6.4 0.00 0.00 0.00 60 1019.3
20260902183903 20 274 1.6 6.4 0.00 0.00 0.00 60 1019.2
20260902183803 20 274 1.6 6.4 0.00 0.00 0.00 61 1019.3
20260902183729 20 274 1.6 6.4 0.00 0.00 0.00 61 1019.3
20260902183702 20 288 1.6 6.4 0.00 0.00 0.00 61 1019.2
20260902183601 20 293 1.6 6.4 0.00 0.00 0.00 61 1019.3
20260902183501 20 302 1.6 6.4 0.00 0.00 0.00 61 1019.2
20260902183402 20 309 1.6 6.4 0.00 0.00 0.00 61 1019.2
20260902183301 20 310 1.6 6.4 0.00 0.00 0.00 61 1019.1
20260902183216 20 310 3.2 6.4 0.00 0.00 0.00 60 1019.1
20260902183212 20 310 1.6 6.4 0.00 0.00 0.00 60 1019.1
20260902183208 20 310 1.6 6.4 0.00 0.00 0.00 60 1019.1
20260902183204 20 310 1.6 6.4 0.00 0.00 0.00 60 1019.1
20260902182948 20 310 1.6 6.4 0.00 0.00 0.00 61 1019.1
20260902182940 20 310 3.2 6.4 0.00 0.00 0.00 60 1019.1
20260902182656 20 310 3.2 6.4 0.00 0.00 0.00 60 1019.1
20260902182554 21 310 3.2 6.4 0.00 0.00 0.00 59 1019.1
20260902182457 21 310 3.2 12.9 0.00 0.00 0.00 59 1019.0
20260902182453 21 310 3.2 6.4 0.00 0.00 0.00 59 1019.1
20260902182449 21 310 3.2 6.4 0.00 0.00 0.00 59 1019.1
20260902182441 21 310 3.2 9.7 0.00 0.00 0.00 58 1019.0
20260902182148 21 310 3.2 12.9 0.00 0.00 0.00 59 1019.1
20260902182048 21 310 4.8 12.9 0.00 0.00 0.00 58 1019.1
20260902181945 21 310 4.8 12.9 0.00 0.00 0.00 58 1019.0
20260902181842 21 310 4.8 12.9 0.00 0.00 0.00 58 1019.0
20260902181729 21 308 4.8 12.9 0.00 0.00 0.00 58 1019.0
20260902181642 21 308 4.8 12.9 0.00 0.00 0.00 58 1019.0
20260902181542 21 308 4.8 12.9 0.00 0.00 0.00 58 1019.0
20260902181440 21 307 4.8 12.9 0.00 0.00 0.00 57 1019.0
20260902181337 21 318 4.8 12.9 0.00 0.00 0.00 57 1019.1
20260902181234 21 320 3.2 12.9 0.00 0.00 0.00 57 1019.1
20260902181228 21 319 3.2 12.9 0.00 0.00 0.00 57 1019.1
20260902181134 21 293 3.2 6.4 0.00 0.00 0.00 56 1019.0
20260902181034 21 244 3.2 4.8 0.00 0.00 0.00 55 1018.9
20260902180933 21 244 3.2 4.8 0.00 0.00 0.00 55 1018.9
20260902180832 21 244 3.2 4.8 0.00 0.00 0.00 55 1018.9
20260902180728 21 243 3.2 4.8 0.00 0.00 0.00 55 1018.9
20260902180719 21 238 1.6 4.8 0.00 0.00 0.00 54 1018.8
20260902180708 21 243 3.2 4.8 0.00 0.00 0.00 54 1018.8
20260902180704 21 244 1.6 4.8 0.00 0.00 0.00 55 1018.8
20260902180449 21 238 1.6 4.8 0.00 0.00 0.00 54 1018.8
20260902180441 21 238 1.6 4.8 0.00 0.00 0.00 54 1018.8
20260902180222 21 238 1.6 4.8 0.00 0.00 0.00 54 1018.8
20260902180122 21 238 1.6 4.8 0.00 0.00 0.00 55 1018.8
20260902180022 21 238 1.6 4.8 0.00 0.00 0.00 54 1018.8
20260902175922 21 238 1.6 4.8 0.00 0.00 0.00 54 1018.8
20260902175819 21 238 1.6 4.8 0.00 0.00 0.00 54 1018.8
20260902175732 21 238 1.6 4.8 0.00 0.00 0.00 55 1018.8
20260902175718 21 238 1.6 4.8 0.00 0.00 0.00 55 1018.8
20260902175618 21 238 1.6 4.8 0.00 0.00 0.00 54 1018.7
20260902175518 21 238 1.6 4.8 0.00 0.00 0.00 54 1018.7
20260902175416 21 238 1.6 4.8 0.00 0.00 0.00 54 1018.7
20260902175312 21 238 1.6 4.8 0.00 0.00 0.00 54 1018.7
20260902175220 21 242 1.6 4.8 0.00 0.00 0.00 54 1018.6
20260902175215 21 238 1.6 4.8 0.00 0.00 0.00 54 1018.7
20260902175212 21 239 1.6 4.8 0.00 0.00 0.00 54 1018.7
20260902175207 21 239 1.6 4.8 0.00 0.00 0.00 54 1018.6
20260902174949 21 239 1.6 4.8 0.00 0.00 0.00 54 1018.6
20260902174940 21 242 1.6 4.8 0.00 0.00 0.00 54 1018.6
20260902174709 21 242 3.2 4.8 0.00 0.00 0.00 54 1018.6
20260902174609 21 242 3.2 4.8 0.00 0.00 0.00 54 1018.5
20260902174506 21 242 3.2 4.8 0.00 0.00 0.00 54 1018.6
20260902174406 21 243 3.2 4.8 0.00 0.00 0.00 53 1018.5
20260902174307 21 243 3.2 4.8 0.00 0.00 0.00 54 1018.5
20260902174204 21 243 3.2 4.8 0.00 0.00 0.00 54 1018.5
20260902174104 21 243 3.2 4.8 0.00 0.00 0.00 54 1018.5
20260902174002 21 243 3.2 4.8 0.00 0.00 0.00 54 1018.5
20260902173902 21 244 3.2 4.8 0.00 0.00 0.00 54 1018.5
20260902173801 21 243 3.2 4.8 0.00 0.00 0.00 54 1018.5
20260902173729 21 244 3.2 6.4 0.00 0.00 0.00 54 1018.5
20260902173702 21 244 3.2 6.4 0.00 0.00 0.00 53 1018.5
20260902173602 21 227 3.2 6.4 0.00 0.00 0.00 53 1018.4
20260902173501 21 227 3.2 6.4 0.00 0.00 0.00 54 1018.5
20260902173401 21 227 3.2 6.4 0.00 0.00 0.00 53 1018.4
20260902173302 21 227 3.2 6.4 0.00 0.00 0.00 53 1018.4
20260902173229 21 227 3.2 6.4 0.00 0.00 0.00 53 1018.4
20260902173201 21 225 3.2 6.4 0.00 0.00 0.00 53 1018.4
20260902173101 21 225 3.2 6.4 0.00 0.00 0.00 52 1018.4
20260902173001 22 225 3.2 6.4 0.00 0.00 0.00 53 1018.4
20260902172901 22 225 3.2 6.4 0.00 0.00 0.00 52 1018.4
20260902172801 22 225 3.2 6.4 0.00 0.00 0.00 53 1018.4
20260902172701 22 225 3.2 6.4 0.00 0.00 0.00 53 1018.4
20260902172601 22 225 4.8 6.4 0.00 0.00 0.00 53 1018.4
20260902172504 22 234 3.2 6.4 0.00 0.00 0.00 53 1018.4
20260902172500 22 255 4.8 8.0 0.00 0.00 0.00 53 1018.4
20260902172449 22 254 3.2 6.4 0.00 0.00 0.00 53 1018.4
20260902172441 22 254 4.8 6.4 0.00 0.00 0.00 53 1018.4
20260902172200 22 255 4.8 8.0 0.00 0.00 0.00 53 1018.4
20260902172101 22 257 4.8 11.3 0.00 0.00 0.00 53 1018.3
20260902172001 22 258 4.8 11.3 0.00 0.00 0.00 52 1018.3
20260902171901 22 258 4.8 11.3 0.00 0.00 0.00 53 1018.4
20260902171800 22 258 4.8 11.3 0.00 0.00 0.00 53 1018.3
20260902171728 22 248 4.8 11.3 0.00 0.00 0.00 53 1018.3
20260902171703 22 248 4.8 11.3 0.00 0.00 0.00 53 1018.4
20260902171602 22 248 4.8 11.3 0.00 0.00 0.00 52 1018.4
20260902171501 22 247 4.8 11.3 0.00 0.00 0.00 52 1018.4
20260902171401 22 247 4.8 11.3 0.00 0.00 0.00 51 1018.4
20260902171300 22 246 4.8 11.3 0.00 0.00 0.00 52 1018.4
20260902171229 22 267 4.8 11.3 0.00 0.00 0.00 52 1018.4
20260902171202 22 270 4.8 11.3 0.00 0.00 0.00 52 1018.4
20260902171100 22 269 3.2 11.3 0.00 0.00 0.00 52 1018.4
20260902171001 22 256 4.8 11.3 0.00 0.00 0.00 52 1018.4
20260902170900 22 254 4.8 11.3 0.00 0.00 0.00 52 1018.4
20260902170800 22 247 3.2 11.3 0.00 0.00 0.00 52 1018.4
20260902170730 22 246 3.2 11.3 0.00 0.00 0.00 52 1018.4
20260902170700 22 251 3.2 11.3 0.00 0.00 0.00 52 1018.4
20260902170558 22 259 3.2 11.3 0.00 0.00 0.00 51 1018.4
20260902170458 22 249 3.2 6.4 0.00 0.00 0.00 51 1018.4
20260902170355 22 251 3.2 9.7 0.00 0.00 0.00 51 1018.4
20260902170229 22 251 4.8 9.7 0.00 0.00 0.00 52 1018.4
20260902170154 22 251 4.8 9.7 0.00 0.00 0.00 51 1018.4
20260902170052 22 244 4.8 9.7 0.00 0.00 0.00 51 1018.4
20260902165952 22 244 4.8 11.3 0.00 0.00 0.00 51 1018.4
20260902165852 22 261 4.8 11.3 0.00 0.00 0.00 51 1018.4
20260902165729 22 261 4.8 11.3 0.00 0.00 0.00 51 1018.4
20260902165650 22 261 4.8 11.3 0.00 0.00 0.00 51 1018.4
20260902165550 22 262 4.8 11.3 0.00 0.00 0.00 50 1018.4
20260902165450 23 264 4.8 11.3 0.00 0.00 0.00 51 1018.4
20260902165349 23 254 4.8 11.3 0.00 0.00 0.00 50 1018.4
20260902165246 23 287 4.8 11.3 0.00 0.00 0.00 50 1018.4
20260902165228 23 256 4.8 11.3 0.00 0.00 0.00 50 1018.4
20260902165146 23 253 4.8 11.3 0.00 0.00 0.00 51 1018.4
20260902165044 23 271 4.8 11.3 0.00 0.00 0.00 50 1018.3
20260902165003 23 249 6.4 11.3 0.00 0.00 0.00 50 1018.3
20260902164951 23 248 4.8 11.3 0.00 0.00 0.00 50 1018.4
20260902164947 23 248 6.4 11.3 0.00 0.00 0.00 50 1018.3
20260902164940 23 248 6.4 11.3 0.00 0.00 0.00 50 1018.3
20260902164640 23 227 6.4 11.3 0.00 0.00 0.00 50 1018.4
20260902164538 23 241 6.4 11.3 0.00 0.00 0.00 50 1018.4
20260902164436 23 248 6.4 11.3 0.00 0.00 0.00 50 1018.4
20260902164336 23 236 6.4 11.3 0.00 0.00 0.00 50 1018.3
20260902164234 23 269 6.4 11.3 0.00 0.00 0.00 49 1018.4
20260902164228 23 271 6.4 11.3 0.00 0.00 0.00 49 1018.4
20260902164134 23 268 6.4 11.3 0.00 0.00 0.00 50 1018.4
20260902164032 23 271 6.4 12.9 0.00 0.00 0.00 49 1018.4
20260902163930 23 263 6.4 12.9 0.00 0.00 0.00 49 1018.4
20260902163830 23 275 6.4 12.9 0.00 0.00 0.00 50 1018.3
20260902163729 23 268 6.4 12.9 0.00 0.00 0.00 49 1018.4
20260902163629 23 258 6.4 12.9 0.00 0.00 0.00 49 1018.4
20260902163529 23 263 6.4 12.9 0.00 0.00 0.00 48 1018.3
20260902163429 23 264 6.4 12.9 0.00 0.00 0.00 49 1018.3
20260902163329 23 278 4.8 12.9 0.00 0.00 0.00 49 1018.3
20260902163229 23 269 4.8 12.9 0.00 0.00 0.00 49 1018.3
20260902163126 23 258 4.8 9.7 0.00 0.00 0.00 49 1018.3
20260902163026 23 255 4.8 11.3 0.00 0.00 0.00 50 1018.3
20260902162926 23 225 4.8 11.3 0.00 0.00 0.00 50 1018.3
20260902162826 23 271 6.4 12.9 0.00 0.00 0.00 49 1018.2
20260902162730 23 281 6.4 12.9 0.00 0.00 0.00 48 1018.2
20260902162724 23 257 6.4 12.9 0.00 0.00 0.00 48 1018.3
20260902162620 23 250 6.4 12.9 0.00 0.00 0.00 48 1018.3
20260902162520 23 250 6.4 12.9 0.00 0.00 0.00 48 1018.3
20260902162420 23 251 6.4 12.9 0.00 0.00 0.00 48 1018.3
20260902162320 23 246 8.0 12.9 0.00 0.00 0.00 48 1018.3
20260902162229 23 246 8.0 14.5 0.00 0.00 0.00 48 1018.3
20260902162218 23 263 8.0 14.5 0.00 0.00 0.00 48 1018.4
20260902162112 23 238 8.0 16.1 0.00 0.00 0.00 48 1018.4
20260902162013 23 285 8.0 16.1 0.00 0.00 0.00 48 1018.4
20260902161912 23 269 8.0 16.1 0.00 0.00 0.00 48 1018.4
20260902161812 23 252 8.0 16.1 0.00 0.00 0.00 48 1018.4
20260902161729 23 270 8.0 16.1 0.00 0.00 0.00 48 1018.4
20260902161711 23 269 8.0 16.1 0.00 0.00 0.00 48 1018.4
20260902161607 23 275 9.7 16.1 0.00 0.00 0.00 47 1018.3
20260902161506 23 296 8.0 16.1 0.00 0.00 0.00 47 1018.3
20260902161406 23 260 8.0 16.1 0.00 0.00 0.00 47 1018.3
20260902161306 23 268 8.0 16.1 0.00 0.00 0.00 47 1018.3
20260902161228 23 244 8.0 16.1 0.00 0.00 0.00 47 1018.3
20260902161206 23 275 8.0 16.1 0.00 0.00 0.00 47 1018.3
20260902161102 23 270 8.0 14.5 0.00 0.00 0.00 47 1018.3
20260902161002 23 269 6.4 14.5 0.00 0.00 0.00 46 1018.3
20260902160902 23 272 6.4 12.9 0.00 0.00 0.00 46 1018.3
20260902160802 23 240 6.4 12.9 0.00 0.00 0.00 47 1018.3
20260902160729 23 276 6.4 12.9 0.00 0.00 0.00 47 1018.3
20260902160721 23 284 6.4 16.1 0.00 0.00 0.00 47 1018.2
20260902160716 23 268 6.4 12.9 0.00 0.00 0.00 47 1018.2
20260902160712 23 269 6.4 14.5 0.00 0.00 0.00 47 1018.2
20260902160708 23 273 6.4 14.5 0.00 0.00 0.00 47 1018.2
20260902160448 23 263 6.4 14.5 0.00 0.00 0.00 47 1018.2
20260902160444 23 275 6.4 14.5 0.00 0.00 0.00 47 1018.2
20260902160201 23 286 6.4 16.1 0.00 0.00 0.00 47 1018.2
20260902160001 23 257 8.0 16.1 0.00 0.00 0.00 47 1018.2
20260902155901 23 232 6.4 16.1 0.00 0.00 0.00 46 1018.2
20260902155801 23 284 6.4 16.1 0.00 0.00 0.00 47 1018.2
20260902155732 23 208 6.4 16.1 0.00 0.00 0.00 47 1018.2
20260902155701 23 250 6.4 16.1 0.00 0.00 0.00 47 1018.3
20260902155601 23 238 6.4 16.1 0.00 0.00 0.00 47 1018.2
20260902155507 23 234 6.4 14.5 0.00 0.00 0.00 48 1018.2
20260902155501 23 275 6.4 16.1 0.00 0.00 0.00 48 1018.2
20260902155448 23 244 6.4 16.1 0.00 0.00 0.00 48 1018.2
20260902155444 23 236 6.4 16.1 0.00 0.00 0.00 48 1018.2
20260902155201 23 223 6.4 14.5 0.00 0.00 0.00 49 1018.2
20260902155100 23 267 6.4 14.5 0.00 0.00 0.00 49 1018.2
20260902155000 23 250 6.4 14.5 0.00 0.00 0.00 47 1018.2
20260902154900 23 270 6.4 14.5 0.00 0.00 0.00 47 1018.2
20260902154800 23 274 8.0 14.5 0.00 0.00 0.00 48 1018.2
20260902154729 23 279 8.0 14.5 0.00 0.00 0.00 48 1018.2
20260902154700 23 268 8.0 16.1 0.00 0.00 0.00 48 1018.2
20260902154600 23 279 8.0 19.3 0.00 0.00 0.00 47 1018.2
20260902154500 23 239 8.0 19.3 0.00 0.00 0.00 47 1018.2
20260902154400 23 276 9.7 19.3 0.00 0.00 0.00 47 1018.1
20260902154300 23 272 8.0 19.3 0.00 0.00 0.00 47 1018.1
20260902154228 23 269 8.0 19.3 0.00 0.00 0.00 47 1018.1
20260902154200 23 265 9.7 19.3 0.00 0.00 0.00 47 1018.1
20260902154100 23 272 9.7 19.3 0.00 0.00 0.00 47 1018.1
20260902154001 23 267 9.7 19.3 0.00 0.00 0.00 48 1018.1
20260902153901 23 199 9.7 19.3 0.00 0.00 0.00 47 1018.2
20260902153802 23 254 9.7 19.3 0.00 0.00 0.00 45 1018.2
20260902153729 23 225 9.7 19.3 0.00 0.00 0.00 45 1018.2
20260902153701 23 198 8.0 19.3 0.00 0.00 0.00 45 1018.2
20260902153600 23 188 8.0 17.7 0.00 0.00 0.00 45 1018.1
20260902153500 23 205 8.0 17.7 0.00 0.00 0.00 47 1018.1
20260902153359 23 238 8.0 17.7 0.00 0.00 0.00 47 1018.2
20260902153259 24 236 8.0 12.9 0.00 0.00 0.00 49 1018.2
20260902153229 24 203 8.0 12.9 0.00 0.00 0.00 49 1018.2
20260902153153 24 220 8.0 12.9 0.00 0.00 0.00 49 1018.1
20260902153054 24 216 8.0 12.9 0.00 0.00 0.00 48 1018.2
20260902152954 24 211 8.0 12.9 0.00 0.00 0.00 47 1018.2
20260902152854 24 200 8.0 12.9 0.00 0.00 0.00 47 1018.2
20260902152754 24 221 8.0 12.9 0.00 0.00 0.00 47 1018.2
20260902152728 24 226 8.0 14.5 0.00 0.00 0.00 47 1018.2
20260902152648 24 234 8.0 17.7 0.00 0.00 0.00 47 1018.2
20260902152548 24 242 8.0 17.7 0.00 0.00 0.00 46 1018.2
20260902152448 24 229 8.0 17.7 0.00 0.00 0.00 46 1018.3
20260902152348 24 219 8.0 17.7 0.00 0.00 0.00 46 1018.3
20260902152248 24 223 8.0 17.7 0.00 0.00 0.00 45 1018.3
20260902152230 24 213 8.0 17.7 0.00 0.00 0.00 45 1018.3
20260902152144 24 288 9.7 17.7 0.00 0.00 0.00 46 1018.3
20260902152044 24 254 9.7 17.7 0.00 0.00 0.00 46 1018.3
20260902151944 24 234 9.7 17.7 0.00 0.00 0.00 45 1018.3
20260902151844 24 252 9.7 17.7 0.00 0.00 0.00 46 1018.3
20260902151742 24 248 11.3 17.7 0.00 0.00 0.00 46 1018.4
20260902151728 24 229 11.3 17.7 0.00 0.00 0.00 46 1018.4
20260902151636 24 276 11.3 22.5 0.00 0.00 0.00 45 1018.3
20260902151536 24 269 11.3 22.5 0.00 0.00 0.00 44 1018.3
20260902151454 24 267 9.7 22.5 0.00 0.00 0.00 44 1018.4
20260902151448 24 285 11.3 22.5 0.00 0.00 0.00 44 1018.3
20260902151444 24 263 9.7 22.5 0.00 0.00 0.00 44 1018.3
20260902151440 24 259 9.7 22.5 0.00 0.00 0.00 44 1018.4
20260902151129 24 265 11.3 22.5 0.00 0.00 0.00 44 1018.3
20260902151030 24 258 9.7 22.5 0.00 0.00 0.00 45 1018.4
20260902150930 24 263 9.7 22.5 0.00 0.00 0.00 44 1018.4
20260902150829 24 229 9.7 22.5 0.00 0.00 0.00 44 1018.4
20260902150729 25 226 9.7 22.5 0.00 0.00 0.00 44 1018.4
20260902150630 25 210 9.7 17.7 0.00 0.00 0.00 44 1018.4
20260902150529 25 240 9.7 17.7 0.00 0.00 0.00 44 1018.4
20260902150429 25 231 8.0 17.7 0.00 0.00 0.00 44 1018.4
20260902150329 25 258 8.0 17.7 0.00 0.00 0.00 44 1018.4
20260902150229 25 258 8.0 17.7 0.00 0.00 0.00 44 1018.4
20260902150224 25 281 8.0 17.7 0.00 0.00 0.00 44 1018.4
20260902150129 25 279 8.0 16.1 0.00 0.00 0.00 43 1018.4
20260902150030 25 217 8.0 16.1 0.00 0.00 0.00 46 1018.4
20260902145929 25 251 8.0 16.1 0.00 0.00 0.00 46 1018.4
20260902145829 25 242 9.7 16.1 0.00 0.00 0.00 45 1018.4
20260902145729 25 239 9.7 16.1 0.00 0.00 0.00 45 1018.4
20260902145717 25 223 9.7 16.1 0.00 0.00 0.00 45 1018.4
20260902145629 25 225 9.7 16.1 0.00 0.00 0.00 44 1018.4
20260902145529 25 237 9.7 16.1 0.00 0.00 0.00 46 1018.4
20260902145429 25 219 9.7 16.1 0.00 0.00 0.00 44 1018.4
20260902145328 25 252 9.7 16.1 0.00 0.00 0.00 45 1018.3
20260902145228 25 249 9.7 16.1 0.00 0.00 0.00 45 1018.4
20260902145211 25 246 9.7 16.1 0.00 0.00 0.00 45 1018.4
20260902145129 25 262 9.7 16.1 0.00 0.00 0.00 45 1018.4
20260902145029 25 267 8.0 16.1 0.00 0.00 0.00 46 1018.3
20260902144925 25 215 8.0 16.1 0.00 0.00 0.00 46 1018.3
20260902144824 25 215 8.0 16.1 0.00 0.00 0.00 46 1018.3
20260902144724 25 221 8.0 16.1 0.00 0.00 0.00 47 1018.3
20260902144711 25 227 8.0 16.1 0.00 0.00 0.00 48 1018.3
20260902144624 25 288 8.0 16.1 0.00 0.00 0.00 48 1018.3
20260902144524 25 254 8.0 14.5 0.00 0.00 0.00 46 1018.3
20260902144440 25 214 8.0 16.1 0.00 0.00 0.00 47 1018.4
20260902144430 25 230 8.0 16.1 0.00 0.00 0.00 46 1018.4
20260902144425 25 212 8.0 16.1 0.00 0.00 0.00 48 1018.4
20260902144421 25 211 8.0 16.1 0.00 0.00 0.00 47 1018.4
20260902144118 25 195 8.0 16.1 0.00 0.00 0.00 47 1018.3
20260902144018 25 230 8.0 16.1 0.00 0.00 0.00 47 1018.4
20260902143938 25 222 8.0 16.1 0.00 0.00 0.00 48 1018.4
20260902143930 25 225 8.0 16.1 0.00 0.00 0.00 47 1018.4
20260902143926 25 248 8.0 16.1 0.00 0.00 0.00 47 1018.4
20260902143922 25 227 8.0 16.1 0.00 0.00 0.00 48 1018.4
20260902143612 25 221 8.0 16.1 0.00 0.00 0.00 48 1018.4
20260902143511 25 227 8.0 16.1 0.00 0.00 0.00 48 1018.4
20260902143406 25 234 8.0 17.7 0.00 0.00 0.00 47 1018.4
20260902143306 25 213 9.7 17.7 0.00 0.00 0.00 46 1018.4
20260902143210 25 237 9.7 17.7 0.00 0.00 0.00 45 1018.4
20260902143206 25 242 9.7 17.7 0.00 0.00 0.00 45 1018.4
20260902143143 25 265 8.0 22.5 0.00 0.00 0.00 46 1018.4
20260902143139 25 196 11.3 22.5 0.00 0.00 0.00 46 1018.4
20260902143135 25 221 9.7 17.7 0.00 0.00 0.00 45 1018.4
20260902143131 25 224 11.3 17.7 0.00 0.00 0.00 44 1018.4
20260902143127 25 217 11.3 19.3 0.00 0.00 0.00 44 1018.4
20260902143123 25 215 11.3 22.5 0.00 0.00 0.00 45 1018.4
20260902142906 25 213 11.3 22.5 0.00 0.00 0.00 46 1018.4
20260902142647 25 324 11.3 22.5 0.00 0.00 0.00 45 1018.4
20260902142643 25 274 11.3 22.5 0.00 0.00 0.00 46 1018.5
20260902142425 25 202 9.7 22.5 0.00 0.00 0.00 47 1018.5
20260902142421 25 258 9.7 22.5 0.00 0.00 0.00 47 1018.5
20260902142204 25 261 8.0 22.5 0.00 0.00 0.00 46 1018.4
20260902142104 25 257 8.0 22.5 0.00 0.00 0.00 47 1018.4
20260902142002 25 261 6.4 22.5 0.00 0.00 0.00 46 1018.5
20260902141902 25 240 6.4 22.5 0.00 0.00 0.00 47 1018.4
20260902141802 25 221 6.4 20.9 0.00 0.00 0.00 47 1018.4
20260902141711 25 225 6.4 12.9 0.00 0.00 0.00 47 1018.4
20260902141702 25 209 6.4 12.9 0.00 0.00 0.00 47 1018.4
20260902141602 25 255 6.4 12.9 0.00 0.00 0.00 46 1018.4
20260902141502 25 245 6.4 14.5 0.00 0.00 0.00 46 1018.4
20260902141431 25 265 8.0 14.5 0.00 0.00 0.00 46 1018.4
20260902141425 25 246 6.4 14.5 0.00 0.00 0.00 45 1018.4
20260902141421 25 213 6.4 14.5 0.00 0.00 0.00 46 1018.4
20260902141201 25 248 8.0 14.5 0.00 0.00 0.00 46 1018.4
20260902141101 25 244 8.0 14.5 0.00 0.00 0.00 46 1018.5
20260902141001 25 194 9.7 19.3 0.00 0.00 0.00 45 1018.5
20260902140901 25 244 9.7 19.3 0.00 0.00 0.00 45 1018.5
20260902140801 25 240 9.7 19.3 0.00 0.00 0.00 46 1018.5
20260902140710 25 278 9.7 19.3 0.00 0.00 0.00 45 1018.5
20260902140701 25 274 9.7 19.3 0.00 0.00 0.00 45 1018.5
20260902140601 25 249 9.7 19.3 0.00 0.00 0.00 45 1018.5
20260902140501 25 251 9.7 19.3 0.00 0.00 0.00 45 1018.5
20260902140432 25 277 9.7 19.3 0.00 0.00 0.00 45 1018.5
20260902140425 25 268 9.7 19.3 0.00 0.00 0.00 47 1018.5
20260902140421 25 221 9.7 19.3 0.00 0.00 0.00 45 1018.5
20260902140201 25 295 9.7 19.3 0.00 0.00 0.00 46 1018.5
20260902140001 25 269 8.0 17.7 0.00 0.00 0.00 47 1018.5
20260902135901 25 193 8.0 16.1 0.00 0.00 0.00 47 1018.6
20260902135801 25 230 8.0 16.1 0.00 0.00 0.00 46 1018.6
20260902135710 25 226 9.7 16.1 0.00 0.00 0.00 47 1018.5
20260902135703 25 200 9.7 16.1 0.00 0.00 0.00 47 1018.5
20260902135659 24 260 9.7 17.7 0.00 0.00 0.00 48 1018.6
20260902135644 25 266 9.7 17.7 0.00 0.00 0.00 47 1018.5
20260902135640 25 291 9.7 17.7 0.00 0.00 0.00 46 1018.5
20260902135425 25 300 9.7 17.7 0.00 0.00 0.00 48 1018.5
20260902135421 25 242 9.7 17.7 0.00 0.00 0.00 48 1018.6
20260902135158 24 235 9.7 17.7 0.00 0.00 0.00 48 1018.6
20260902135057 24 250 8.0 17.7 0.00 0.00 0.00 49 1018.6
20260902134954 24 232 8.0 17.7 0.00 0.00 0.00 48 1018.6
20260902134855 24 319 8.0 17.7 0.00 0.00 0.00 48 1018.6
20260902134754 24 290 8.0 17.7 0.00 0.00 0.00 48 1018.6
20260902134710 24 263 8.0 17.7 0.00 0.00 0.00 47 1018.7
20260902134654 24 236 8.0 17.7 0.00 0.00 0.00 47 1018.7
20260902134552 24 273 8.0 16.1 0.00 0.00 0.00 47 1018.6
20260902134450 24 239 8.0 16.1 0.00 0.00 0.00 46 1018.6
20260902134350 24 269 8.0 16.1 0.00 0.00 0.00 47 1018.6
20260902134250 24 256 8.0 16.1 0.00 0.00 0.00 47 1018.6
20260902134208 24 324 8.0 16.1 0.00 0.00 0.00 47 1018.6
20260902134147 25 319 8.0 16.1 0.00 0.00 0.00 47 1018.6
20260902134046 25 273 8.0 16.1 0.00 0.00 0.00 46 1018.6
20260902133941 25 262 8.0 16.1 0.00 0.00 0.00 47 1018.7
20260902133929 25 263 6.4 16.1 0.00 0.00 0.00 48 1018.6
20260902133922 25 279 8.0 16.1 0.00 0.00 0.00 47 1018.6
20260902133918 25 281 6.4 16.1 0.00 0.00 0.00 47 1018.6
20260902133642 25 278 6.4 16.1 0.00 0.00 0.00 48 1018.6
20260902133542 25 284 6.4 16.1 0.00 0.00 0.00 48 1018.7
20260902133442 25 270 6.4 14.5 0.00 0.00 0.00 51 1018.7
20260902133342 25 273 8.0 17.7 0.00 0.00 0.00 51 1018.6
20260902133242 24 286 8.0 17.7 0.00 0.00 0.00 51 1018.7
20260902133208 24 252 8.0 17.7 0.00 0.00 0.00 51 1018.6
20260902133140 24 241 8.0 17.7 0.00 0.00 0.00 49 1018.6
20260902133039 24 233 9.7 17.7 0.00 0.00 0.00 50 1018.7
20260902132939 24 277 9.7 17.7 0.00 0.00 0.00 50 1018.7
20260902132935 24 287 11.3 19.3 0.00 0.00 0.00 48 1018.7
20260902132924 24 296 11.3 17.7 0.00 0.00 0.00 48 1018.7
20260902132920 24 273 11.3 19.3 0.00 0.00 0.00 48 1018.7
20260902132635 24 273 11.3 19.3 0.00 0.00 0.00 48 1018.7
20260902132534 24 256 11.3 19.3 0.00 0.00 0.00 48 1018.7
20260902132434 24 224 9.7 19.3 0.00 0.00 0.00 47 1018.8
20260902132333 25 308 9.7 19.3 0.00 0.00 0.00 47 1018.7
20260902132233 25 257 9.7 19.3 0.00 0.00 0.00 47 1018.7
20260902132208 25 279 8.0 19.3 0.00 0.00 0.00 47 1018.7
20260902132134 25 262 8.0 19.3 0.00 0.00 0.00 47 1018.7
20260902132033 25 269 8.0 19.3 0.00 0.00 0.00 47 1018.7
20260902131933 25 221 6.4 19.3 0.00 0.00 0.00 47 1018.8
20260902131833 25 248 6.4 19.3 0.00 0.00 0.00 48 1018.7
20260902131732 25 251 4.8 12.9 0.00 0.00 0.00 49 1018.7
20260902131705 25 273 4.8 12.9 0.00 0.00 0.00 49 1018.7
20260902131632 25 276 4.8 11.3 0.00 0.00 0.00 49 1018.7
20260902131532 25 261 4.8 11.3 0.00 0.00 0.00 49 1018.7
20260902131430 25 296 4.8 11.3 0.00 0.00 0.00 49 1018.7
20260902131329 25 273 4.8 14.5 0.00 0.00 0.00 49 1018.7
20260902131230 25 232 4.8 14.5 0.00 0.00 0.00 49 1018.7
20260902131205 25 305 6.4 14.5 0.00 0.00 0.00 50 1018.7
20260902131129 25 306 6.4 14.5 0.00 0.00 0.00 50 1018.7
20260902131029 25 238 6.4 14.5 0.00 0.00 0.00 49 1018.6
20260902130929 25 236 6.4 14.5 0.00 0.00 0.00 49 1018.7
20260902130830 25 236 8.0 14.5 0.00 0.00 0.00 49 1018.6
20260902130729 25 234 8.0 14.5 0.00 0.00 0.00 49 1018.7
20260902130706 25 239 9.7 14.5 0.00 0.00 0.00 49 1018.7
20260902130629 25 241 9.7 16.1 0.00 0.00 0.00 49 1018.7
20260902130529 25 242 9.7 16.1 0.00 0.00 0.00 50 1018.7
20260902130429 25 234 11.3 16.1 0.00 0.00 0.00 49 1018.7
20260902130329 25 257 11.3 16.1 0.00 0.00 0.00 49 1018.7
20260902130229 25 257 11.3 16.1 0.00 0.00 0.00 49 1018.8
20260902130203 25 254 9.7 16.1 0.00 0.00 0.00 49 1018.7
20260902130129 25 315 9.7 16.1 0.00 0.00 0.00 49 1018.7
20260902130029 25 267 9.7 16.1 0.00 0.00 0.00 48 1018.8
20260902125929 25 248 9.7 16.1 0.00 0.00 0.00 48 1018.8
20260902125828 25 257 9.7 16.1 0.00 0.00 0.00 48 1018.8
20260902125728 25 249 9.7 16.1 0.00 0.00 0.00 48 1018.7
20260902125704 25 263 9.7 16.1 0.00 0.00 0.00 49 1018.7
20260902125629 25 250 9.7 17.7 0.00 0.00 0.00 49 1018.7
20260902125529 25 269 8.0 17.7 0.00 0.00 0.00 48 1018.8
20260902125429 25 282 8.0 17.7 0.00 0.00 0.00 50 1018.7
20260902125329 25 263 8.0 17.7 0.00 0.00 0.00 49 1018.7
20260902125229 25 254 8.0 17.7 0.00 0.00 0.00 51 1018.7
20260902125203 25 259 8.0 17.7 0.00 0.00 0.00 51 1018.8
20260902125130 25 254 8.0 17.7 0.00 0.00 0.00 50 1018.8
20260902125029 25 212 8.0 17.7 0.00 0.00 0.00 47 1018.8
20260902124929 25 219 8.0 17.7 0.00 0.00 0.00 49 1018.8
20260902124824 25 215 8.0 17.7 0.00 0.00 0.00 50 1018.8
20260902124723 25 238 8.0 17.7 0.00 0.00 0.00 50 1018.8
20260902124703 25 252 8.0 17.7 0.00 0.00 0.00 50 1018.8
20260902124623 25 221 8.0 16.1 0.00 0.00 0.00 50 1018.8
20260902124522 24 271 8.0 16.1 0.00 0.00 0.00 51 1018.8
20260902124421 24 261 8.0 16.1 0.00 0.00 0.00 52 1018.8
20260902124321 24 260 8.0 16.1 0.00 0.00 0.00 50 1018.8
20260902124204 24 223 8.0 16.1 0.00 0.00 0.00 51 1018.8
20260902124121 24 232 8.0 16.1 0.00 0.00 0.00 51 1018.8
20260902124019 24 236 8.0 16.1 0.00 0.00 0.00 50 1018.8
20260902123920 24 240 8.0 16.1 0.00 0.00 0.00 51 1018.8
20260902123820 24 269 8.0 16.1 0.00 0.00 0.00 51 1018.9
20260902123720 24 254 6.4 14.5 0.00 0.00 0.00 52 1018.8
20260902123703 24 265 6.4 12.9 0.00 0.00 0.00 52 1018.8
20260902123620 24 318 6.4 12.9 0.00 0.00 0.00 53 1018.8
20260902123520 23 329 6.4 12.9 0.00 0.00 0.00 53 1018.8
20260902123429 24 244 6.4 16.1 0.00 0.00 0.00 53 1018.9
20260902123422 23 311 6.4 12.9 0.00 0.00 0.00 52 1018.8
20260902123418 23 309 6.4 12.9 0.00 0.00 0.00 53 1018.9
20260902123416 24 279 6.4 16.1 0.00 0.00 0.00 52 1018.9
20260902123119 24 259 6.4 16.1 0.00 0.00 0.00 52 1018.8
20260902123020 24 301 6.4 16.1 0.00 0.00 0.00 52 1018.9
20260902122920 24 281 6.4 16.1 0.00 0.00 0.00 52 1018.8
20260902122820 24 288 6.4 16.1 0.00 0.00 0.00 52 1018.9
20260902122720 24 263 4.8 16.1 0.00 0.00 0.00 52 1018.9
20260902122703 24 300 4.8 16.1 0.00 0.00 0.00 52 1018.9
20260902122619 24 298 6.4 16.1 0.00 0.00 0.00 53 1018.9
20260902122520 24 309 6.4 16.1 0.00 0.00 0.00 52 1019.0
20260902122415 24 305 6.4 16.1 0.00 0.00 0.00 54 1019.0
20260902122315 24 299 8.0 16.1 0.00 0.00 0.00 53 1019.0
20260902122215 23 262 8.0 19.3 0.00 0.00 0.00 52 1019.0
20260902122204 23 261 8.0 19.3 0.00 0.00 0.00 55 1019.0